Darstellungsparameter: Aktuell verwendete Einstellungen:
Skalierung der Graphiken ... ?
xyx+y,   Skalierungsfaktor:      Skalierung: Modus: x, Faktor: 1
Darstellungszeitraum ... ?
Vom - - bis: - -   Zeitraum: 03.08.2017 - 02.08.2020
Min/Max/Avg-Anzeige ... ?
Zeige MMA aktuell
Zeige MMA Monat
Zeige MMA alles
Zeige --A aktuell
Zeige --A Monat
Zeige --A alles
Keine MMA-Anzeige
MMA:
Keine MMA-Graphiken
MMA-Basis: 03.08.2017 - 02.08.2020
Quicknavigation für Darstellung... ?
Tage:      1T, 2T, 3T, 5T -1T -2T -3T -5T +1T +2T +3T +5T
Wochen: 1W, 2W, 3W -1W -2W -3W +1W +2W +3W
Monate: 1M, 3M, 6M -1M -3M -6M +1M +3M +6M
Jahre:    1J, 3J, 5J, 10J -1J -3J -5J -10J +1J +3J +5J +10J
Nutze für die Darstellung ... ?
Originaldaten oder ...
Mittelwerte Minima Maxima auf...
Stundenbasis Tagesbasis Wochenbasis
Monatsbasis Jahresbasis      Datenbasis: Mittelwerte auf Tagesbasis
Darstellen als:
Statistik (Auto) Statistik J:M      Darstellung:
Zur Graphik,    zurück zur Übersicht aller Sensoren.
 
Tabellarische Datenbersicht: ?
 
Sensor: Nr:Datum:Temp:Feuchte:
Aussen-T/F 1 03-08-2017 00:00:00 21.82833 C 28.1250 %
2 04-08-2017 00:00:00 21.0775 C 24.1917 %
3 05-08-2017 00:00:00 19.94833 C 23.8417 %
4 06-08-2017 00:00:00 18.32583 C 25.1000 %
5 07-08-2017 00:00:00 17.93417 C 26.7083 %
6 08-08-2017 00:00:00 17.9375 C 27.5583 %
7 09-08-2017 00:00:00 18.1525 C 23.5583 %
8 10-08-2017 00:00:00 15.35 C 47.5833 %
9 11-08-2017 00:00:00 14.705 C 51.5167 %
10 12-08-2017 00:00:00 15.305 C 40.2750 %
11 13-08-2017 00:00:00 18.60917 C 28.7333 %
12 14-08-2017 00:00:00 18.56167 C 33.7917 %
13 15-08-2017 00:00:00 18.83833 C 38.5333 %
14 16-08-2017 00:00:00 19.97167 C 37.3917 %
15 17-08-2017 00:00:00 19.57167 C 33.3667 %
16 18-08-2017 00:00:00 18.17417 C 43.5167 %
17 19-08-2017 00:00:00 14.47417 C 43.3667 %
18 20-08-2017 00:00:00 14.925 C 30.8417 %
19 21-08-2017 00:00:00 16.3575 C 28.8917 %
20 22-08-2017 00:00:00 16.08833 C 31.8500 %
21 23-08-2017 00:00:00 17.92583 C 30.8917 %
22 24-08-2017 00:00:00 19.9075 C 26.1917 %
23 25-08-2017 00:00:00 18.30833 C 37.3750 %
24 26-08-2017 00:00:00 20.88833 C 44.3167 %
25 27-08-2017 00:00:00 19.63083 C 34.5250 %
Sensor: Nr:Datum:Temp:Feuchte:
Aussen-T/F 26 28-08-2017 00:00:00 19.4775 C 30.1667 %
27 29-08-2017 00:00:00 20.03667 C 34.9500 %
28 30-08-2017 00:00:00 20.91167 C 31.6750 %
29 31-08-2017 00:00:00 17.32857 C 27.5210 %
30 01-09-2017 00:00:00 14.1 C 34.5083 %
31 02-09-2017 00:00:00 14.51417 C 34.0667 %
32 03-09-2017 00:00:00 12.90417 C 31.6750 %
33 04-09-2017 00:00:00 13.94167 C 34.8750 %
34 05-09-2017 00:00:00 17.87 C 36.6833 %
35 06-09-2017 00:00:00 17.47083 C 25.8083 %
36 07-09-2017 00:00:00 15.90083 C 21.1083 %
37 08-09-2017 00:00:00 15.99583 C 20.6583 %
38 09-09-2017 00:00:00 14.54 C 39.9417 %
39 10-09-2017 00:00:00 13.27583 C 43.1833 %
40 11-09-2017 00:00:00 14.27083 C 26.4083 %
41 12-09-2017 00:00:00 14.32583 C 26.1417 %
42 13-09-2017 00:00:00 13.965 C 38.8333 %
43 14-09-2017 00:00:00 11.75417 C 39.2750 %
44 15-09-2017 00:00:00 12.5175 C 33.8750 %
45 16-09-2017 00:00:00 10.11333 C 40.9500 %
46 17-09-2017 00:00:00 9.67 C 51.4833 %
47 18-09-2017 00:00:00 10.46 C 46.2417 %
48 19-09-2017 00:00:00 11.76 C 32.8500 %
49 20-09-2017 00:00:00 11.29583 C 42.5167 %
50 21-09-2017 00:00:00 10.49 C 44.7417 %
Sensor: Nr:Datum:Temp:Feuchte:
Aussen-T/F 51 22-09-2017 00:00:00 11.12417 C 43.8917 %
52 23-09-2017 00:00:00 13.495 C 40.1917 %
53 24-09-2017 00:00:00 12.475 C 44.1417 %
54 25-09-2017 00:00:00 12.56583 C 44.0250 %
55 26-09-2017 00:00:00 13.27167 C 41.8333 %
56 27-09-2017 00:00:00 13.05083 C 43.9333 %
57 28-09-2017 00:00:00 14.64667 C 44.6000 %
58 29-09-2017 00:00:00 17.38667 C 38.5083 %
59 30-09-2017 00:00:00 14.205 C 48.5667 %
60 01-10-2017 00:00:00 10.23667 C 56.3000 %
61 02-10-2017 00:00:00 13.38833 C 43.6167 %
62 03-10-2017 00:00:00 12.20667 C 42.3667 %
63 04-10-2017 00:00:00 11.05583 C 31.0333 %
64 05-10-2017 00:00:00 12.92833 C 21.9667 %
65 06-10-2017 00:00:00 9.4 C 33.6250 %
66 07-10-2017 00:00:00 9.55083 C 31.6583 %
67 08-10-2017 00:00:00 11.81833 C 41.5417 %
68 09-10-2017 00:00:00 10.9925 C 47.1583 %
69 10-10-2017 00:00:00 12.88917 C 31.8167 %
70 11-10-2017 00:00:00 13.19167 C 31.2083 %
71 12-10-2017 00:00:00 13.13667 C 36.6500 %
72 13-10-2017 00:00:00 13.9275 C 38.7583 %
73 14-10-2017 00:00:00 12.47167 C 50.0167 %
74 15-10-2017 00:00:00 11.94833 C 54.6750 %
75 16-10-2017 00:00:00 12.63333 C 51.4833 %
Sensor: Nr:Datum:Temp:Feuchte:
Aussen-T/F 76 17-10-2017 00:00:00 12.20667 C 52.4250 %
77 18-10-2017 00:00:00 11.85333 C 50.4167 %
78 19-10-2017 00:00:00 11.0025 C 50.7750 %
79 20-10-2017 00:00:00 11.63697 C 37.7479 %
80 21-10-2017 00:00:00 11.28083 C 38.1917 %
81 22-10-2017 00:00:00 10.28417 C 24.4167 %
82 23-10-2017 00:00:00 10.42417 C 23.7667 %
83 24-10-2017 00:00:00 12.76333 C 33.7917 %
84 25-10-2017 00:00:00 15.1425 C 27.6500 %
85 26-10-2017 00:00:00 13.17917 C 29.2667 %
86 27-10-2017 00:00:00 10.80833 C 33.6167 %
87 28-10-2017 00:00:00 10.09833 C 24.5250 %
88 29-10-2017 00:00:00 10.1184 C 26.6160 %
89 30-10-2017 00:00:00 6.43917 C 30.2667 %
90 31-10-2017 00:00:00 7.06917 C 27.1250 %
91 01-11-2017 00:00:00 7.99917 C 24.8000 %
92 02-11-2017 00:00:00 7.76917 C 32.9583 %
93 03-11-2017 00:00:00 6.735 C 45.5833 %
94 04-11-2017 00:00:00 7.89167 C 53.2917 %
95 05-11-2017 00:00:00 8.26167 C 46.6500 %
96 06-11-2017 00:00:00 5.14 C 33.5917 %
97 07-11-2017 00:00:00 4.24333 C 45.0833 %
98 08-11-2017 00:00:00 6.0575 C 55.0333 %
99 09-11-2017 00:00:00 7.38917 C 46.1583 %
100 10-11-2017 00:00:00 6.65917 C 26.9667 %
Sensor: Nr:Datum:Temp:Feuchte:
Aussen-T/F 101 11-11-2017 00:00:00 5.63583 C 40.7000 %
102 12-11-2017 00:00:00 3.91583 C 58.4500 %
103 13-11-2017 00:00:00 4.73833 C 41.6917 %
104 14-11-2017 00:00:00 3.73417 C 47.8500 %
105 15-11-2017 00:00:00 6.5375 C 27.1083 %
106 16-11-2017 00:00:00 4.27833 C 39.8500 %
107 17-11-2017 00:00:00 5.2975 C 48.8250 %
108 18-11-2017 00:00:00 2.87083 C 39.8833 %
109 19-11-2017 00:00:00 4.78583 C 32.4167 %
110 20-11-2017 00:00:00 4.46917 C 31.8667 %
111 21-11-2017 00:00:00 8.65667 C 28.5833 %
112 22-11-2017 00:00:00 7.285 C 30.5250 %
113 23-11-2017 00:00:00 8.5175 C 46.0583 %
114 24-11-2017 00:00:00 9.68 C 41.3083 %
115 25-11-2017 00:00:00 4.5475 C 53.6583 %
116 26-11-2017 00:00:00 2.92583 C 28.8917 %
117 27-11-2017 00:00:00 4.8625 C 21.2917 %
118 28-11-2017 00:00:00 3.22667 C 51.1000 %
119 29-11-2017 00:00:00 2.265 C 55.6667 %
120 30-11-2017 00:00:00 1.60417 C 52.1417 %
121 01-12-2017 00:00:00 -0.2175 C 65.1167 %
122 02-12-2017 00:00:00 0.44833 C 41.3833 %
123 03-12-2017 00:00:00 -0.00667 C 31.2250 %
124 04-12-2017 00:00:00 2.29 C 46.3167 %
125 05-12-2017 00:00:00 3.6025 C 38.3333 %
Sensor: Nr:Datum:Temp:Feuchte:
Aussen-T/F 126 06-12-2017 00:00:00 5.19833 C 24.6583 %
127 07-12-2017 00:00:00 4.21333 C 22.9083 %
128 08-12-2017 00:00:00 2.61083 C 31.9250 %
129 09-12-2017 00:00:00 0.24417 C 20.0083 %
130 10-12-2017 00:00:00 1.39167 C 28.5667 %
131 11-12-2017 00:00:00 4.91083 C 48.9333 %
132 12-12-2017 00:00:00 2.8125 C 21.0417 %
133 13-12-2017 00:00:00 2.70083 C 32.0833 %
134 14-12-2017 00:00:00 3.58417 C 33.7083 %
135 15-12-2017 00:00:00 2.05167 C 59.1500 %
136 16-12-2017 00:00:00 2.14667 C 54.8167 %
137 17-12-2017 00:00:00 2.22583 C 28.7000 %
138 18-12-2017 00:00:00 0.71333 C 56.1333 %
139 19-12-2017 00:00:00 2.67 C 67.9667 %
140 20-12-2017 00:00:00 4.95083 C 67.4833 %
141 21-12-2017 00:00:00 6.82667 C 61.0083 %
142 22-12-2017 00:00:00 8.10417 C 67.4917 %
143 23-12-2017 00:00:00 8.1975 C 39.8417 %
144 24-12-2017 00:00:00 8.37583 C 20.1083 %
145 25-12-2017 00:00:00 6.34167 C 20.0583 %
146 26-12-2017 00:00:00 3.55917 C 38.0083 %
147 27-12-2017 00:00:00 4.2 C 40.9333 %
148 28-12-2017 00:00:00 2.28083 C 30.6667 %
149 29-12-2017 00:00:00 1.6 C 29.8333 %
150 30-12-2017 00:00:00 6.22583 C 44.3250 %
Sensor: Nr:Datum:Temp:Feuchte:
Aussen-T/F 151 31-12-2017 00:00:00 12.09667 C 23.3583 %
152 01-01-2018 00:00:00 7.035 C 28.9500 %
153 02-01-2018 00:00:00 5.395 C 28.4083 %
154 03-01-2018 00:00:00 7.40667 C 26.8250 %
155 04-01-2018 00:00:00 7.375 C 35.2167 %
156 05-01-2018 00:00:00 7.45583 C 34.5250 %
157 06-01-2018 00:00:00 5.4075 C 71.1333 %
158 07-01-2018 00:00:00 4.365 C 39.4167 %
159 08-01-2018 00:00:00 3.86417 C 21.1167 %
160 09-01-2018 00:00:00 4.01083 C 35.8167 %
161 10-01-2018 00:00:00 5.88833 C 39.9000 %
162 11-01-2018 00:00:00 6.29167 C 52.8750 %
163 12-01-2018 00:00:00 5.70083 C 50.0167 %
164 13-01-2018 00:00:00 4.70917 C 38.6750 %
165 14-01-2018 00:00:00 2.06917 C 25.5583 %
166 15-01-2018 00:00:00 2.675 C 35.7000 %
167 16-01-2018 00:00:00 5.00167 C 27.7500 %
168 17-01-2018 00:00:00 2.35 C 27.4500 %
169 18-01-2018 00:00:00 4.8775 C 25.4667 %
170 19-01-2018 00:00:00 2.92583 C 27.3750 %
171 20-01-2018 00:00:00 2.10833 C 38.1000 %
172 21-01-2018 00:00:00 1.73917 C 43.8167 %
173 22-01-2018 00:00:00 4.38583 C 45.1083 %
174 23-01-2018 00:00:00 6.65593 C 27.4831 %
175 24-01-2018 00:00:00 10.79316 C 24.5470 %
Sensor: Nr:Datum:Temp:Feuchte:
Aussen-T/F 176 25-01-2018 00:00:00 9.13917 C 43.9750 %
177 26-01-2018 00:00:00 5.89167 C 56.7333 %
178 27-01-2018 00:00:00 4.26583 C 45.6667 %
179 28-01-2018 00:00:00 6.63917 C 22.5333 %
180 29-01-2018 00:00:00 9.275 C 22.7417 %
181 30-01-2018 00:00:00 4.25333 C 35.1167 %
182 31-01-2018 00:00:00 6.62917 C 32.6500 %
183 01-02-2018 00:00:00 2.0675 C 36.1083 %
184 02-02-2018 00:00:00 2.36417 C 31.6667 %
185 03-02-2018 00:00:00 2.65042 C 30.2269 %
186 04-02-2018 00:00:00 0.38667 C 29.6333 %
187 05-02-2018 00:00:00 -0.98583 C 20.2500 %
188 06-02-2018 00:00:00 -1.55167 C 25.9583 %
189 07-02-2018 00:00:00 -0.79667 C 32.3833 %
190 08-02-2018 00:00:00 -3.34333 C 28.9667 %
191 09-02-2018 00:00:00 -2.8975 C 36.1833 %
192 10-02-2018 00:00:00 1.41833 C 24.0167 %
193 11-02-2018 00:00:00 2.22 C 26.3667 %
194 12-02-2018 00:00:00 1.25083 C 34.8917 %
195 13-02-2018 00:00:00 -1.44 C 29.8417 %
196 14-02-2018 00:00:00 -3.14333 C 28.8667 %
197 15-02-2018 00:00:00 0.80417 C 40.6583 %
198 16-02-2018 00:00:00 0.98667 C 60.1667 %
199 17-02-2018 00:00:00 -0.55 C 48.8833 %
200 18-02-2018 00:00:00 -2.16917 C 38.4250 %
Sensor: Nr:Datum:Temp:Feuchte:
Aussen-T/F 201 19-02-2018 00:00:00 0.37083 C 35.6500 %
202 20-02-2018 00:00:00 -0.54083 C 33.3417 %
203 21-02-2018 00:00:00 -0.04917 C 22.5333 %
204 22-02-2018 00:00:00 -1.265 C 21.2167 %
205 23-02-2018 00:00:00 -2.0175 C 20.0000 %
206 24-02-2018 00:00:00 -2.72667 C 20.0000 %
207 25-02-2018 00:00:00 -3.74417 C 20.0000 %
208 26-02-2018 00:00:00 -5.06167 C 20.0000 %
209 27-02-2018 00:00:00 -7.2225 C 20.3500 %
210 28-02-2018 00:00:00 -7.98333 C 20.0000 %
211 01-03-2018 00:00:00 -3.74917 C 20.0000 %
212 02-03-2018 00:00:00 -2.59083 C 20.0917 %
213 03-03-2018 00:00:00 -0.72083 C 28.3583 %
214 04-03-2018 00:00:00 3.2 C 37.8833 %
215 05-03-2018 00:00:00 5.22833 C 42.3583 %
216 06-03-2018 00:00:00 4.25 C 40.7750 %
217 07-03-2018 00:00:00 4.89167 C 43.0333 %
218 08-03-2018 00:00:00 5.66417 C 23.5833 %
219 09-03-2018 00:00:00 4.83667 C 41.9500 %
220 10-03-2018 00:00:00 9.51333 C 45.7833 %
221 11-03-2018 00:00:00 9.60833 C 40.1667 %
222 12-03-2018 00:00:00 9.04083 C 37.0250 %
223 13-03-2018 00:00:00 6.84083 C 24.1083 %
224 14-03-2018 00:00:00 6.32917 C 26.1667 %
225 15-03-2018 00:00:00 5.73833 C 33.0750 %
Sensor: Nr:Datum:Temp:Feuchte:
Aussen-T/F 226 16-03-2018 00:00:00 7.00917 C 47.9667 %
227 17-03-2018 00:00:00 -0.93917 C 20.2583 %
228 18-03-2018 00:00:00 -2.1675 C 20.0000 %
229 19-03-2018 00:00:00 -0.63417 C 20.0000 %
230 20-03-2018 00:00:00 -0.4175 C 20.0167 %
231 21-03-2018 00:00:00 0.5225 C 24.8500 %
232 22-03-2018 00:00:00 2.45417 C 30.2000 %
233 23-03-2018 00:00:00 5.83583 C 38.3250 %
234 24-03-2018 00:00:00 4.74917 C 35.3167 %
235 25-03-2018 00:00:00 4.60522 C 30.4870 %
236 26-03-2018 00:00:00 7.34167 C 20.0250 %
237 27-03-2018 00:00:00 5.52083 C 29.7083 %
238 28-03-2018 00:00:00 8.02667 C 36.4167 %
239 29-03-2018 00:00:00 6.93667 C 20.9833 %
240 30-03-2018 00:00:00 6.38833 C 34.0000 %
241 31-03-2018 00:00:00 7.84583 C 39.4917 %
242 01-04-2018 00:00:00 7.26083 C 20.4250 %
243 02-04-2018 00:00:00 8.7875 C 27.6500 %
244 03-04-2018 00:00:00 13.26583 C 20.0000 %
245 04-04-2018 00:00:00 10.6625 C 24.3500 %
246 05-04-2018 00:00:00 7.485 C 30.3417 %
247 06-04-2018 00:00:00 6.66833 C 35.5583 %
248 07-04-2018 00:00:00 12.16083 C 22.7583 %
249 08-04-2018 00:00:00 14.75333 C 22.3333 %
250 09-04-2018 00:00:00 13.84583 C 24.6917 %
Sensor: Nr:Datum:Temp:Feuchte:
Aussen-T/F 251 10-04-2018 00:00:00 12.68 C 28.0833 %
252 11-04-2018 00:00:00 11.99333 C 34.9833 %
253 12-04-2018 00:00:00 13.34833 C 37.0500 %
254 13-04-2018 00:00:00 9.9075 C 32.0833 %
255 14-04-2018 00:00:00 12.74 C 36.2167 %
256 15-04-2018 00:00:00 14.41667 C 27.2750 %
257 16-04-2018 00:00:00 13.76083 C 31.1917 %
258 17-04-2018 00:00:00 14.02167 C 29.2083 %
259 18-04-2018 00:00:00 15.74583 C 26.0333 %
260 19-04-2018 00:00:00 17.22083 C 26.6000 %
261 20-04-2018 00:00:00 17.00083 C 24.1667 %
262 21-04-2018 00:00:00 18.43667 C 23.5750 %
263 22-04-2018 00:00:00 18.55417 C 25.1083 %
264 23-04-2018 00:00:00 18.66417 C 20.2833 %
265 24-04-2018 00:00:00 14.27333 C 24.2167 %
266 25-04-2018 00:00:00 13.4125 C 21.6750 %
267 26-04-2018 00:00:00 11.21 C 20.0000 %
268 27-04-2018 00:00:00 12.55083 C 22.6167 %
269 28-04-2018 00:00:00 12.6075 C 23.1000 %
270 29-04-2018 00:00:00 14.48167 C 29.9583 %
271 30-04-2018 00:00:00 13.82167 C 24.6083 %
272 01-05-2018 00:00:00 9.82667 C 20.0500 %
273 02-05-2018 00:00:00 9.81083 C 27.0250 %
274 03-05-2018 00:00:00 12.9575 C 23.3250 %
275 04-05-2018 00:00:00 13.49833 C 21.9583 %
Sensor: Nr:Datum:Temp:Feuchte:
Aussen-T/F 276 05-05-2018 00:00:00 15.83583 C 20.0667 %
277 06-05-2018 00:00:00 17.25 C 20.1167 %
278 07-05-2018 00:00:00 17.88167 C 21.1000 %
279 08-05-2018 00:00:00 18.43583 C 22.6667 %
280 09-05-2018 00:00:00 17.19333 C 22.2583 %
281 10-05-2018 00:00:00 14.13917 C 25.9500 %
282 11-05-2018 00:00:00 14.92083 C 27.9167 %
283 12-05-2018 00:00:00 17.0825 C 28.2750 %
284 13-05-2018 00:00:00 14.3425 C 37.0500 %
285 14-05-2018 00:00:00 17.16333 C 35.6750 %
286 15-05-2018 00:00:00 16.0375 C 27.9417 %
287 16-05-2018 00:00:00 15.7475 C 27.4000 %
288 17-05-2018 00:00:00 14.55667 C 23.4833 %
289 18-05-2018 00:00:00 13.17083 C 21.1083 %
290 19-05-2018 00:00:00 13.845 C 23.5250 %
291 20-05-2018 00:00:00 14.06917 C 31.8333 %
292 21-05-2018 00:00:00 17.55333 C 27.4333 %
293 22-05-2018 00:00:00 17.09833 C 29.9833 %
294 23-05-2018 00:00:00 17.23083 C 36.1833 %
295 24-05-2018 00:00:00 17.22083 C 27.4917 %
296 25-05-2018 00:00:00 20.19417 C 26.8083 %
297 26-05-2018 00:00:00 21.1325 C 26.3667 %
298 27-05-2018 00:00:00 20.4375 C 27.6917 %
299 28-05-2018 00:00:00 21.70917 C 33.5833 %
300 29-05-2018 00:00:00 20.88333 C 27.1500 %
Sensor: Nr:Datum:Temp:Feuchte:
Aussen-T/F 301 30-05-2018 00:00:00 21.6725 C 28.2333 %
302 31-05-2018 00:00:00 23.08167 C 20.2750 %
303 01-06-2018 00:00:00 19.3725 C 29.3667 %
304 02-06-2018 00:00:00 19.64917 C 23.6750 %
305 03-06-2018 00:00:00 20.04167 C 24.8250 %
306 04-06-2018 00:00:00 21.5125 C 24.5417 %
307 05-06-2018 00:00:00 21.2475 C 22.2500 %
308 06-06-2018 00:00:00 21.6775 C 24.0000 %
309 07-06-2018 00:00:00 21.58667 C 22.6167 %
310 08-06-2018 00:00:00 21.40167 C 24.3000 %
311 09-06-2018 00:00:00 22.3959 C 23.5984 %
312 10-06-2018 00:00:00 21.64333 C 33.3000 %
313 11-06-2018 00:00:00 19.07083 C 41.7083 %
314 12-06-2018 00:00:00 16.44167 C 37.5250 %
315 13-06-2018 00:00:00 15.1 C 22.7000 %
316 14-06-2018 00:00:00 15.48083 C 30.2917 %
317 15-06-2018 00:00:00 17.9025 C 35.7250 %
318 16-06-2018 00:00:00 20.2775 C 26.1583 %
319 17-06-2018 00:00:00 18.42583 C 22.8083 %
320 18-06-2018 00:00:00 18.235 C 21.9750 %
321 19-06-2018 00:00:00 19.13333 C 25.5583 %
322 20-06-2018 00:00:00 23.4825 C 24.4667 %
323 21-06-2018 00:00:00 18.58 C 22.6500 %
324 22-06-2018 00:00:00 14.12167 C 20.0000 %
325 23-06-2018 00:00:00 14.19167 C 21.2750 %
Sensor: Nr:Datum:Temp:Feuchte:
Aussen-T/F 326 24-06-2018 00:00:00 16.46667 C 22.7833 %
327 25-06-2018 00:00:00 17.57167 C 21.5583 %
328 26-06-2018 00:00:00 18.34083 C 24.8583 %
329 27-06-2018 00:00:00 19.81083 C 24.3333 %
330 28-06-2018 00:00:00 21.28417 C 20.6000 %
331 29-06-2018 00:00:00 24.82417 C 20.0000 %
332 30-06-2018 00:00:00 22.8375 C 20.4583 %
333 01-07-2018 00:00:00 21.52333 C 20.0000 %
334 02-07-2018 00:00:00 21.06583 C 20.0000 %
335 03-07-2018 00:00:00 21.34917 C 20.0000 %
336 04-07-2018 00:00:00 19.00917 C 27.2667 %
337 05-07-2018 00:00:00 19.70667 C 33.6083 %
338 06-07-2018 00:00:00 20.57333 C 25.0417 %
339 07-07-2018 00:00:00 21.3521 C 23.5630 %
340 08-07-2018 00:00:00 20.38417 C 21.0583 %
341 09-07-2018 00:00:00 20.71083 C 21.4167 %
342 10-07-2018 00:00:00 17.5975 C 22.4000 %
343 11-07-2018 00:00:00 16.2875 C 33.6667 %
344 12-07-2018 00:00:00 19.71583 C 32.5000 %
345 13-07-2018 00:00:00 20.13 C 24.9667 %
346 14-07-2018 00:00:00 22.01333 C 24.7500 %
347 15-07-2018 00:00:00 22.10833 C 22.6333 %
348 16-07-2018 00:00:00 23.10667 C 21.7167 %
349 17-07-2018 00:00:00 21.59583 C 20.3583 %
350 18-07-2018 00:00:00 20.9475 C 22.7500 %
Sensor: Nr:Datum:Temp:Feuchte:
Aussen-T/F 351 19-07-2018 00:00:00 21.47667 C 21.5833 %
352 20-07-2018 00:00:00 21.81583 C 20.1917 %
353 21-07-2018 00:00:00 20.94083 C 22.6750 %
354 22-07-2018 00:00:00 22.115 C 25.1500 %
355 23-07-2018 00:00:00 22.98917 C 21.2167 %
356 24-07-2018 00:00:00 24.11417 C 22.5833 %
357 25-07-2018 00:00:00 25.90417 C 20.1583 %
358 26-07-2018 00:00:00 27.54333 C 20.0167 %
359 27-07-2018 00:00:00 26.46167 C 20.0000 %
360 28-07-2018 00:00:00 22.24 C 22.3250 %
361 29-07-2018 00:00:00 23.87667 C 23.3500 %
362 30-07-2018 00:00:00 24.435 C 20.3250 %
363 31-07-2018 00:00:00 25.8025 C 21.1500 %
364 01-08-2018 00:00:00 20.68583 C 32.5500 %
365 02-08-2018 00:00:00 24.12 C 31.7333 %
366 03-08-2018 00:00:00 26.79583 C 20.9083 %
367 04-08-2018 00:00:00 26.84 C 20.0667 %
368 05-08-2018 00:00:00 25.5025 C 20.1667 %
369 06-08-2018 00:00:00 24.4075 C 20.1500 %
370 07-08-2018 00:00:00 26.99333 C 20.0000 %
371 08-08-2018 00:00:00 25.83667 C 20.0000 %
372 09-08-2018 00:00:00 20.8725 C 26.6583 %
373 10-08-2018 00:00:00 18.73667 C 20.8917 %
374 11-08-2018 00:00:00 18.76667 C 20.0000 %
375 12-08-2018 00:00:00 18.38667 C 21.9833 %
Sensor: Nr:Datum:Temp:Feuchte:
Aussen-T/F 376 13-08-2018 00:00:00 17.82083 C 28.9750 %
377 14-08-2018 00:00:00 18.755 C 28.1167 %
378 15-08-2018 00:00:00 19.59583 C 29.0833 %
379 16-08-2018 00:00:00 20.84333 C 28.0000 %
380 17-08-2018 00:00:00 20.11583 C 22.3500 %
381 18-08-2018 00:00:00 19.2675 C 26.3417 %
382 19-08-2018 00:00:00 20.68667 C 23.5250 %
383 20-08-2018 00:00:00 21.20333 C 20.6833 %
384 21-08-2018 00:00:00 22.2425 C 24.3417 %
385 22-08-2018 00:00:00 23.51417 C 22.7667 %
386 23-08-2018 00:00:00 23.22 C 23.0167 %
387 24-08-2018 00:00:00 19.31833 C 20.6583 %
388 25-08-2018 00:00:00 14.65417 C 21.6083 %
389 26-08-2018 00:00:00 13.95083 C 28.0000 %
390 27-08-2018 00:00:00 18.20917 C 20.3667 %
391 28-08-2018 00:00:00 18.39833 C 20.7167 %
392 29-08-2018 00:00:00 17.005 C 30.8917 %
393 30-08-2018 00:00:00 17.4125 C 25.9167 %
394 31-08-2018 00:00:00 15.33167 C 23.6000 %
395 01-09-2018 00:00:00 14.445 C 26.6667 %
396 02-09-2018 00:00:00 14.24833 C 24.8000 %
397 03-09-2018 00:00:00 18.13417 C 22.9917 %
398 04-09-2018 00:00:00 20.0425 C 27.0167 %
399 05-09-2018 00:00:00 20.69 C 25.3083 %
400 06-09-2018 00:00:00 18.0925 C 32.7583 %
Sensor: Nr:Datum:Temp:Feuchte:
Aussen-T/F 401 07-09-2018 00:00:00 15.6675 C 33.8500 %
402 08-09-2018 00:00:00 13.5425 C 30.5333 %
403 09-09-2018 00:00:00 16.80833 C 23.2500 %
404 10-09-2018 00:00:00 17.5025 C 23.9000 %
405 11-09-2018 00:00:00 18.86667 C 26.0333 %
406 12-09-2018 00:00:00 19.03167 C 24.0083 %
407 13-09-2018 00:00:00 16.5775 C 25.7417 %
408 14-09-2018 00:00:00 17.1375 C 25.2000 %
409 15-09-2018 00:00:00 15.17 C 21.0833 %
410 16-09-2018 00:00:00 14.51 C 27.7833 %
411 17-09-2018 00:00:00 16.24583 C 25.3583 %
412 18-09-2018 00:00:00 18.72833 C 26.0000 %
413 19-09-2018 00:00:00 20.545 C 25.3250 %
414 20-09-2018 00:00:00 19.08833 C 26.8417 %
415 21-09-2018 00:00:00 15.91167 C 24.5750 %
416 22-09-2018 00:00:00 12.6825 C 25.6333 %
417 23-09-2018 00:00:00 12.18083 C 47.2250 %
418 24-09-2018 00:00:00 9.66 C 36.3583 %
419 25-09-2018 00:00:00 8.06417 C 42.7083 %
420 26-09-2018 00:00:00 8.5625 C 35.2583 %
421 27-09-2018 00:00:00 10.55833 C 35.5667 %
422 28-09-2018 00:00:00 9.67833 C 43.7167 %
423 29-09-2018 00:00:00 7.75083 C 41.1250 %
424 30-09-2018 00:00:00 7.2475 C 35.9250 %
425 01-10-2018 00:00:00 9.41583 C 29.7833 %
Sensor: Nr:Datum:Temp:Feuchte:
Aussen-T/F 426 02-10-2018 00:00:00 8.87917 C 33.7167 %
427 03-10-2018 00:00:00 11.93917 C 34.0750 %
428 04-10-2018 00:00:00 9.37167 C 38.3000 %
429 05-10-2018 00:00:00 10.05917 C 42.4917 %
430 06-10-2018 00:00:00 12.08583 C 44.5417 %
431 07-10-2018 00:00:00 12.625 C 37.2750 %
432 08-10-2018 00:00:00 9.9775 C 39.4833 %
433 09-10-2018 00:00:00 11.14583 C 44.1500 %
434 10-10-2018 00:00:00 12.71667 C 45.8500 %
435 11-10-2018 00:00:00 13.6775 C 40.8667 %
436 12-10-2018 00:00:00 15.05417 C 38.8667 %
437 13-10-2018 00:00:00 14.68833 C 38.8250 %
438 14-10-2018 00:00:00 13.92083 C 36.1000 %
439 15-10-2018 00:00:00 12.87417 C 37.7167 %
440 16-10-2018 00:00:00 12.0325 C 38.6083 %
441 17-10-2018 00:00:00 12.01333 C 41.5083 %
442 18-10-2018 00:00:00 13.73917 C 38.0333 %
443 19-10-2018 00:00:00 11.66417 C 37.7167 %
444 20-10-2018 00:00:00 10.57167 C 36.9583 %
445 21-10-2018 00:00:00 6.7725 C 44.7500 %
446 22-10-2018 00:00:00 7.16833 C 43.7083 %
447 23-10-2018 00:00:00 8.68 C 39.8083 %
448 24-10-2018 00:00:00 13.58167 C 33.8333 %
449 25-10-2018 00:00:00 12.74667 C 31.1083 %
450 26-10-2018 00:00:00 9.95417 C 28.9917 %
Sensor: Nr:Datum:Temp:Feuchte:
Aussen-T/F 451 27-10-2018 00:00:00 5.7925 C 48.4000 %
452 28-10-2018 00:00:00 5.2 C 33.7840 %
453 29-10-2018 00:00:00 5.97083 C 33.6667 %
454 30-10-2018 00:00:00 5.80583 C 46.3667 %
455 31-10-2018 00:00:00 6.87167 C 39.3333 %
456 01-11-2018 00:00:00 5.49083 C 58.1333 %
457 02-11-2018 00:00:00 8.22333 C 53.4750 %
458 03-11-2018 00:00:00 3.10583 C 60.6667 %
459 04-11-2018 00:00:00 6.64167 C 47.4000 %
460 05-11-2018 00:00:00 9.7725 C 45.3417 %
461 06-11-2018 00:00:00 7.78167 C 57.6917 %
462 07-11-2018 00:00:00 8.4 C 54.3917 %
463 08-11-2018 00:00:00 9.7 C 41.1583 %
464 09-11-2018 00:00:00 8.83167 C 49.0500 %
465 10-11-2018 00:00:00 11.32 C 42.0250 %
466 11-11-2018 00:00:00 11.46583 C 47.7500 %
467 12-11-2018 00:00:00 13.07917 C 44.0417 %
468 13-11-2018 00:00:00 9.75583 C 50.0167 %
469 14-11-2018 00:00:00 5.56917 C 61.4000 %
470 15-11-2018 00:00:00 6.72833 C 38.5000 %
471 16-11-2018 00:00:00 5.12667 C 41.4000 %
472 17-11-2018 00:00:00 1.785 C 48.8667 %
473 18-11-2018 00:00:00 0.80333 C 30.7417 %
474 19-11-2018 00:00:00 2.95833 C 26.3167 %
475 20-11-2018 00:00:00 2.95167 C 25.6167 %
Sensor: Nr:Datum:Temp:Feuchte:
Aussen-T/F 476 21-11-2018 00:00:00 1.93 C 37.9750 %
477 22-11-2018 00:00:00 2.22833 C 39.2750 %
478 23-11-2018 00:00:00 -0.8425 C 54.2583 %
479 24-11-2018 00:00:00 4.05833 C 58.0917 %
480 25-11-2018 00:00:00 5.29 C 56.7917 %
481 26-11-2018 00:00:00 6.09333 C 35.8583 %
482 27-11-2018 00:00:00 3.6075 C 30.9583 %
483 28-11-2018 00:00:00 2.97583 C 45.6917 %
484 29-11-2018 00:00:00 4.98333 C 47.6917 %
485 30-11-2018 00:00:00 6.67167 C 48.6583 %
486 01-12-2018 00:00:00 6.67417 C 47.9750 %
487 02-12-2018 00:00:00 10.59167 C 45.4750 %
488 03-12-2018 00:00:00 11.02333 C 51.1333 %
489 04-12-2018 00:00:00 5.62 C 45.3833 %
490 05-12-2018 00:00:00 3.15546 C 56.8487 %
491 06-12-2018 00:00:00 9.21333 C 47.7750 %
492 07-12-2018 00:00:00 10.71583 C 33.9000 %
493 08-12-2018 00:00:00 7.28083 C 37.2333 %
494 09-12-2018 00:00:00 7.285 C 37.6917 %
495 10-12-2018 00:00:00 3.9825 C 44.3833 %
496 11-12-2018 00:00:00 2.87417 C 51.3500 %
497 12-12-2018 00:00:00 2.0375 C 58.1583 %
498 13-12-2018 00:00:00 0.49 C 37.0417 %
499 14-12-2018 00:00:00 0.48 C 20.9833 %
500 15-12-2018 00:00:00 -0.09083 C 24.2083 %
Sensor: Nr:Datum:Temp:Feuchte:
Aussen-T/F 501 16-12-2018 00:00:00 0.045 C 43.8833 %
502 17-12-2018 00:00:00 3.4775 C 51.8333 %
503 18-12-2018 00:00:00 4.1675 C 41.5083 %
504 19-12-2018 00:00:00 5.75 C 37.3000 %
505 20-12-2018 00:00:00 6.87083 C 39.0583 %
506 21-12-2018 00:00:00 10.1725 C 34.4750 %
507 22-12-2018 00:00:00 9.26167 C 35.0083 %
508 23-12-2018 00:00:00 7.89333 C 46.8500 %
509 24-12-2018 00:00:00 4.10333 C 44.5000 %
510 25-12-2018 00:00:00 1.0625 C 49.8500 %
511 26-12-2018 00:00:00 -1.61083 C 52.7667 %
512 27-12-2018 00:00:00 -0.68583 C 57.2917 %
513 28-12-2018 00:00:00 -0.61667 C 51.7667 %
514 29-12-2018 00:00:00 2.0175 C 45.4833 %
515 30-12-2018 00:00:00 6.73917 C 37.6417 %
516 31-12-2018 00:00:00 6.84917 C 56.5417 %
517 01-01-2019 00:00:00 6.345 C 45.5833 %
518 02-01-2019 00:00:00 2.72417 C 34.2083 %
519 03-01-2019 00:00:00 1.28167 C 47.5833 %
520 04-01-2019 00:00:00 2.41333 C 45.7833 %
521 05-01-2019 00:00:00 5.14417 C 47.4583 %
522 06-01-2019 00:00:00 5.0725 C 44.3083 %
523 07-01-2019 00:00:00 4.8875 C 41.5500 %
524 08-01-2019 00:00:00 5.74917 C 36.7000 %
525 09-01-2019 00:00:00 3.05083 C 34.6917 %
Sensor: Nr:Datum:Temp:Feuchte:
Aussen-T/F 526 10-01-2019 00:00:00 1.36 C 32.5417 %
527 11-01-2019 00:00:00 2.05417 C 54.0417 %
528 12-01-2019 00:00:00 5.01833 C 46.3583 %
529 13-01-2019 00:00:00 6.9225 C 47.7417 %
530 14-01-2019 00:00:00 4.06833 C 43.5667 %
531 15-01-2019 00:00:00 4.06833 C 40.0333 %
532 16-01-2019 00:00:00 4.52583 C 35.3417 %
533 17-01-2019 00:00:00 4.27167 C 37.9583 %
534 18-01-2019 00:00:00 -0.2025 C 49.3250 %
535 19-01-2019 00:00:00 -3.87667 C 48.1333 %
536 20-01-2019 00:00:00 -6.33 C 47.2250 %
537 21-01-2019 00:00:00 -7.505 C 46.8917 %
538 22-01-2019 00:00:00 -5.97917 C 44.1750 %
539 23-01-2019 00:00:00 -2.435 C 39.5667 %
540 24-01-2019 00:00:00 -2.72417 C 26.7667 %
541 25-01-2019 00:00:00 -0.50917 C 39.3333 %
542 26-01-2019 00:00:00 3.62167 C 45.9417 %
543 27-01-2019 00:00:00 4.94833 C 43.1917 %
544 28-01-2019 00:00:00 2.2025 C 45.2417 %
545 29-01-2019 00:00:00 0.865 C 44.1667 %
546 30-01-2019 00:00:00 -0.46833 C 49.8250 %
547 31-01-2019 00:00:00 -1.03333 C 52.2750 %
548 01-02-2019 00:00:00 0.72167 C 56.8333 %
549 02-02-2019 00:00:00 1.59587 C 62.5950 %
550 03-02-2019 00:00:00 1.86583 C 40.0750 %
Sensor: Nr:Datum:Temp:Feuchte:
Aussen-T/F 551 04-02-2019 00:00:00 0.99417 C 40.5833 %
552 05-02-2019 00:00:00 3.66167 C 30.5917 %
553 06-02-2019 00:00:00 0.09417 C 46.8417 %
554 07-02-2019 00:00:00 4.26083 C 38.9917 %
555 08-02-2019 00:00:00 6.77417 C 31.6250 %
556 09-02-2019 00:00:00 8.02083 C 28.8667 %
557 10-02-2019 00:00:00 7.15083 C 39.6167 %
558 11-02-2019 00:00:00 4.03667 C 38.3917 %
559 12-02-2019 00:00:00 3.01917 C 38.2083 %
560 13-02-2019 00:00:00 0.96333 C 46.8167 %
561 14-02-2019 00:00:00 -0.46667 C 51.0250 %
562 15-02-2019 00:00:00 0.9925 C 45.0667 %
563 16-02-2019 00:00:00 1.9325 C 47.3750 %
564 17-02-2019 00:00:00 2.17333 C 49.1333 %
565 18-02-2019 00:00:00 2.31167 C 43.0500 %
566 19-02-2019 00:00:00 4.89 C 40.9750 %
567 20-02-2019 00:00:00 3.7725 C 45.5000 %
568 21-02-2019 00:00:00 5.655 C 46.3667 %
569 22-02-2019 00:00:00 9.27167 C 39.5167 %
570 23-02-2019 00:00:00 4.58167 C 33.2583 %
571 24-02-2019 00:00:00 2.29833 C 32.9417 %
572 25-02-2019 00:00:00 3.65667 C 31.8250 %
573 26-02-2019 00:00:00 4.75583 C 37.6333 %
574 27-02-2019 00:00:00 5.17417 C 38.9250 %
575 28-02-2019 00:00:00 8.185 C 29.8833 %
Sensor: Nr:Datum:Temp:Feuchte:
Aussen-T/F 576 01-03-2019 00:00:00 7.515 C 43.8250 %
577 02-03-2019 00:00:00 8.29333 C 34.1417 %
578 03-03-2019 00:00:00 10.72417 C 28.1417 %
579 04-03-2019 00:00:00 9.1575 C 27.8167 %
580 05-03-2019 00:00:00 6.32167 C 30.8917 %
581 06-03-2019 00:00:00 9.5125 C 32.3667 %
582 07-03-2019 00:00:00 9.61917 C 28.3833 %
583 08-03-2019 00:00:00 7.73167 C 28.8250 %
584 09-03-2019 00:00:00 10.01667 C 26.3333 %
585 10-03-2019 00:00:00 9.11083 C 30.1417 %
586 11-03-2019 00:00:00 4.19667 C 30.2417 %
587 12-03-2019 00:00:00 6.18083 C 27.8583 %
588 13-03-2019 00:00:00 5.6775 C 31.5250 %
589 14-03-2019 00:00:00 6.3325 C 38.0083 %
590 15-03-2019 00:00:00 9.61417 C 37.6917 %
591 16-03-2019 00:00:00 9.76833 C 35.9667 %
592 17-03-2019 00:00:00 8.19083 C 26.8333 %
593 18-03-2019 00:00:00 4.3225 C 36.6583 %
594 19-03-2019 00:00:00 3.115 C 40.3583 %
595 20-03-2019 00:00:00 4.81417 C 37.4250 %
596 21-03-2019 00:00:00 6.76333 C 35.7167 %
597 22-03-2019 00:00:00 8.43083 C 34.0750 %
598 23-03-2019 00:00:00 5.40167 C 40.0083 %
599 24-03-2019 00:00:00 5.90583 C 38.2167 %
600 25-03-2019 00:00:00 4.41583 C 37.7583 %
Sensor: Nr:Datum:Temp:Feuchte:
Aussen-T/F 601 26-03-2019 00:00:00 6.33417 C 32.9583 %
602 27-03-2019 00:00:00 6.36583 C 35.3083 %
603 28-03-2019 00:00:00 6.955 C 36.2417 %
604 29-03-2019 00:00:00 8.44167 C 38.7750 %
605 30-03-2019 00:00:00 10.07583 C 34.1833 %
606 31-03-2019 00:00:00 9.90957 C 33.8174 %
607 01-04-2019 00:00:00 8.9475 C 32.5750 %
608 02-04-2019 00:00:00 10.5425 C 29.3083 %
609 03-04-2019 00:00:00 7.865 C 38.6750 %
610 04-04-2019 00:00:00 5.56833 C 48.7000 %
611 05-04-2019 00:00:00 5.95417 C 48.0167 %
612 06-04-2019 00:00:00 9.88333 C 42.1917 %
613 07-04-2019 00:00:00 11.50833 C 36.8000 %
614 08-04-2019 00:00:00 12.34417 C 33.9167 %
615 09-04-2019 00:00:00 12.00333 C 40.7333 %
616 10-04-2019 00:00:00 10.585 C 23.8417 %
617 11-04-2019 00:00:00 6.52917 C 25.0583 %
618 12-04-2019 00:00:00 4.68167 C 20.0000 %
619 13-04-2019 00:00:00 3.585 C 24.4167 %
620 14-04-2019 00:00:00 5.23833 C 34.7917 %
621 15-04-2019 00:00:00 10.29167 C 25.8000 %
622 16-04-2019 00:00:00 10.91333 C 23.2000 %
623 17-04-2019 00:00:00 12.4 C 35.6083 %
624 18-04-2019 00:00:00 13.7675 C 28.5500 %
625 19-04-2019 00:00:00 14.94917 C 24.5083 %
Sensor: Nr:Datum:Temp:Feuchte:
Aussen-T/F 626 20-04-2019 00:00:00 14.60167 C 27.5833 %
627 21-04-2019 00:00:00 15.24333 C 24.6417 %
628 22-04-2019 00:00:00 14.7825 C 27.5667 %
629 23-04-2019 00:00:00 15.12667 C 20.1083 %
630 24-04-2019 00:00:00 15.10083 C 30.7083 %
631 25-04-2019 00:00:00 13.2425 C 38.0667 %
632 26-04-2019 00:00:00 11.8 C 32.0000 %
633 27-04-2019 00:00:00 9.01583 C 40.3667 %
634 28-04-2019 00:00:00 8.43333 C 30.9750 %
635 29-04-2019 00:00:00 8.62417 C 38.4083 %
636 30-04-2019 00:00:00 13.94583 C 26.0833 %
637 01-05-2019 00:00:00 13.03833 C 29.5000 %
638 02-05-2019 00:00:00 12.08333 C 31.3667 %
639 03-05-2019 00:00:00 11.20833 C 25.1500 %
640 04-05-2019 00:00:00 6.17583 C 33.4500 %
641 05-05-2019 00:00:00 6.66333 C 32.0417 %
642 06-05-2019 00:00:00 7.6075 C 30.6583 %
643 07-05-2019 00:00:00 9.645 C 28.6167 %
644 08-05-2019 00:00:00 9.105 C 38.9750 %
645 09-05-2019 00:00:00 11.085 C 36.9583 %
646 10-05-2019 00:00:00 12.44538 C 33.3866 %
647 11-05-2019 00:00:00 9.52833 C 47.9417 %
648 12-05-2019 00:00:00 9.4 C 31.3083 %
649 13-05-2019 00:00:00 9.985 C 30.9083 %
650 14-05-2019 00:00:00 9.66333 C 26.4333 %
Sensor: Nr:Datum:Temp:Feuchte:
Aussen-T/F 651 15-05-2019 00:00:00 10.57083 C 24.3500 %
652 16-05-2019 00:00:00 10.61167 C 23.0917 %
653 17-05-2019 00:00:00 11.4775 C 39.7250 %
654 18-05-2019 00:00:00 14.67167 C 39.3500 %
655 19-05-2019 00:00:00 15.91083 C 38.3750 %
656 20-05-2019 00:00:00 13.655 C 37.8667 %
657 21-05-2019 00:00:00 11.88167 C 45.6167 %
658 22-05-2019 00:00:00 13.2875 C 33.7833 %
659 23-05-2019 00:00:00 15.22667 C 33.1417 %
660 24-05-2019 00:00:00 17.24 C 28.7500 %
661 25-05-2019 00:00:00 15.89917 C 22.8167 %
662 26-05-2019 00:00:00 16.26667 C 29.2667 %
663 27-05-2019 00:00:00 14.66667 C 40.5417 %
664 28-05-2019 00:00:00 14.29917 C 38.6250 %
665 29-05-2019 00:00:00 15.28667 C 25.9000 %
666 30-05-2019 00:00:00 15.82833 C 28.8250 %
667 31-05-2019 00:00:00 19.45583 C 30.4167 %
668 01-06-2019 00:00:00 20.21917 C 30.3583 %
669 02-06-2019 00:00:00 22.16417 C 30.0500 %
670 03-06-2019 00:00:00 21.1475 C 27.1667 %
671 04-06-2019 00:00:00 21.80333 C 28.3333 %
672 05-06-2019 00:00:00 23.57917 C 22.7833 %
673 06-06-2019 00:00:00 16.14167 C 28.3667 %
674 07-06-2019 00:00:00 16.10083 C 29.5250 %
675 08-06-2019 00:00:00 16.40917 C 20.2667 %
Sensor: Nr:Datum:Temp:Feuchte:
Aussen-T/F 676 09-06-2019 00:00:00 16.72333 C 27.7667 %
677 10-06-2019 00:00:00 19.705 C 23.4750 %
678 11-06-2019 00:00:00 17.38 C 32.4667 %
679 12-06-2019 00:00:00 16.405 C 33.2917 %
680 13-06-2019 00:00:00 16.27917 C 34.4333 %
681 14-06-2019 00:00:00 18.17 C 35.6583 %
682 15-06-2019 00:00:00 19.72583 C 33.0250 %
683 16-06-2019 00:00:00 19.94417 C 24.9167 %
684 17-06-2019 00:00:00 19.5125 C 29.1250 %
685 18-06-2019 00:00:00 22.02333 C 27.1333 %
686 19-06-2019 00:00:00 22.62583 C 27.6917 %
687 20-06-2019 00:00:00 20 C 28.0167 %
688 21-06-2019 00:00:00 19.3425 C 27.3333 %
689 22-06-2019 00:00:00 19.82667 C 26.6167 %
690 23-06-2019 00:00:00 22.3125 C 27.3750 %
691 24-06-2019 00:00:00 24.96167 C 26.2167 %
692 25-06-2019 00:00:00 26.83333 C 24.5583 %
693 26-06-2019 00:00:00 27.635 C 23.0833 %
694 27-06-2019 00:00:00 25.18917 C 20.6083 %
695 28-06-2019 00:00:00 22.44833 C 23.4333 %
696 29-06-2019 00:00:00 24.38417 C 22.1750 %
697 30-06-2019 00:00:00 26.0575 C 22.2333 %
698 01-07-2019 00:00:00 23.3825 C 20.0000 %
699 02-07-2019 00:00:00 19.63333 C 21.8667 %
700 03-07-2019 00:00:00 18.14583 C 22.9833 %
Sensor: Nr:Datum:Temp:Feuchte:
Aussen-T/F 701 04-07-2019 00:00:00 18.95917 C 21.7583 %
702 05-07-2019 00:00:00 21.28 C 20.0000 %
703 06-07-2019 00:00:00 21.86 C 21.2917 %
704 07-07-2019 00:00:00 17.9975 C 24.5833 %
705 08-07-2019 00:00:00 14.77583 C 24.3917 %
706 09-07-2019 00:00:00 15.65583 C 24.6667 %
707 10-07-2019 00:00:00 17.64083 C 24.2083 %
708 11-07-2019 00:00:00 17.65083 C 31.2583 %
709 12-07-2019 00:00:00 17.16583 C 43.6333 %
710 13-07-2019 00:00:00 17.9575 C 34.1250 %
711 14-07-2019 00:00:00 17.12917 C 26.6667 %
712 15-07-2019 00:00:00 16.56667 C 21.0917 %
713 16-07-2019 00:00:00 16.26 C 28.0333 %
714 17-07-2019 00:00:00 17.56833 C 29.2083 %
715 18-07-2019 00:00:00 19.38333 C 28.1917 %
716 19-07-2019 00:00:00 20.12667 C 31.9750 %
717 20-07-2019 00:00:00 21.81667 C 30.3083 %
718 21-07-2019 00:00:00 22.37333 C 25.8833 %
719 22-07-2019 00:00:00 22.7225 C 26.2833 %
720 23-07-2019 00:00:00 25.34083 C 25.5333 %
721 24-07-2019 00:00:00 27.1975 C 24.2750 %
722 25-07-2019 00:00:00 28.90167 C 21.7333 %
723 26-07-2019 00:00:00 27.54417 C 21.2500 %
724 27-07-2019 00:00:00 23.4375 C 26.6833 %
725 28-07-2019 00:00:00 19.93083 C 38.1333 %
Sensor: Nr:Datum:Temp:Feuchte:
Aussen-T/F 726 29-07-2019 00:00:00 21.45583 C 29.3333 %
727 30-07-2019 00:00:00 22.35833 C 26.7167 %
728 31-07-2019 00:00:00 21.48417 C 20.5333 %
729 01-08-2019 00:00:00 19.83417 C 22.9750 %
730 02-08-2019 00:00:00 20.8775 C 22.8500 %
731 03-08-2019 00:00:00 20.77167 C 24.6333 %
732 04-08-2019 00:00:00 21.00667 C 28.3000 %
733 05-08-2019 00:00:00 22.56833 C 24.9167 %
734 06-08-2019 00:00:00 20.0075 C 30.3333 %
735 07-08-2019 00:00:00 19.10167 C 41.3833 %
736 08-08-2019 00:00:00 20.55667 C 30.6417 %
737 09-08-2019 00:00:00 19.73833 C 39.4583 %
738 10-08-2019 00:00:00 20.72917 C 37.6833 %
739 11-08-2019 00:00:00 17.03333 C 35.9000 %
740 12-08-2019 00:00:00 16.51583 C 38.9833 %
741 13-08-2019 00:00:00 16.10833 C 35.2833 %
742 14-08-2019 00:00:00 16.6875 C 34.0417 %
743 15-08-2019 00:00:00 17.20583 C 40.0250 %
744 16-08-2019 00:00:00 17.84 C 34.2250 %
745 17-08-2019 00:00:00 17.89333 C 38.0750 %
746 18-08-2019 00:00:00 19.71833 C 44.5000 %
747 19-08-2019 00:00:00 18.45167 C 33.8417 %
748 20-08-2019 00:00:00 15.91167 C 33.3250 %
749 21-08-2019 00:00:00 16.52917 C 33.4750 %
750 22-08-2019 00:00:00 17.12333 C 32.3667 %
Sensor: Nr:Datum:Temp:Feuchte:
Aussen-T/F 751 23-08-2019 00:00:00 18.31667 C 31.5083 %
752 24-08-2019 00:00:00 19.36333 C 30.9833 %
753 25-08-2019 00:00:00 21.54583 C 29.8917 %
754 26-08-2019 00:00:00 22.17 C 33.4833 %
755 27-08-2019 00:00:00 22.70333 C 35.1667 %
756 28-08-2019 00:00:00 23.4425 C 30.4583 %
757 29-08-2019 00:00:00 22.20333 C 28.3583 %
758 30-08-2019 00:00:00 21.07 C 29.2583 %
759 31-08-2019 00:00:00 21.975 C 30.7583 %
760 01-09-2019 00:00:00 18.8525 C 26.8333 %
761 02-09-2019 00:00:00 15.49333 C 28.2000 %
762 03-09-2019 00:00:00 15.72917 C 28.0833 %
763 04-09-2019 00:00:00 16.9525 C 33.9667 %
764 05-09-2019 00:00:00 15.59 C 26.2917 %
765 06-09-2019 00:00:00 13.58917 C 31.1917 %
766 07-09-2019 00:00:00 12.6975 C 39.5000 %
767 08-09-2019 00:00:00 12.7439 C 48.5935 %
768 09-09-2019 00:00:00 15.23733 C 38.6667 %
769 10-09-2019 00:00:00 12.20486 C 22.8264 %
770 11-09-2019 00:00:00 13.35556 C 20.8472 %
771 12-09-2019 00:00:00 19.325 C 20.0000 %
772 13-09-2019 00:00:00 17.86806 C 20.1111 %
773 14-09-2019 00:00:00 15.93333 C 22.4375 %
774 15-09-2019 00:00:00 15.65694 C 21.2778 %
775 16-09-2019 00:00:00 16.21389 C 20.0000 %
Sensor: Nr:Datum:Temp:Feuchte:
Aussen-T/F 776 17-09-2019 00:00:00 15.87708 C 20.0000 %
777 18-09-2019 00:00:00 11.47361 C 20.7917 %
778 19-09-2019 00:00:00 10.53333 C 21.8194 %
779 20-09-2019 00:00:00 10.80486 C 20.8472 %
780 21-09-2019 00:00:00 12.45278 C 20.6597 %
781 22-09-2019 00:00:00 14.78542 C 20.7500 %
782 23-09-2019 00:00:00 16.6875 C 22.1528 %
783 24-09-2019 00:00:00 13.94306 C 26.6319 %
784 25-09-2019 00:00:00 15.31806 C 25.0417 %
785 26-09-2019 00:00:00 16.10903 C 26.0000 %
786 27-09-2019 00:00:00 16.23333 C 23.7708 %
787 28-09-2019 00:00:00 15.40208 C 22.5833 %
788 29-09-2019 00:00:00 16.05972 C 21.6597 %
789 30-09-2019 00:00:00 15.48194 C 21.1319 %
790 01-10-2019 00:00:00 15.84375 C 23.4931 %
791 02-10-2019 00:00:00 12.57569 C 23.6111 %
792 03-10-2019 00:00:00 9.35625 C 27.6944 %
793 04-10-2019 00:00:00 10.03681 C 31.8403 %
794 05-10-2019 00:00:00 10.32986 C 26.5903 %
795 06-10-2019 00:00:00 7.85764 C 34.1250 %
796 07-10-2019 00:00:00 9.80764 C 31.8819 %
797 08-10-2019 00:00:00 12.35833 C 31.0694 %
798 09-10-2019 00:00:00 11.56667 C 27.7431 %
799 10-10-2019 00:00:00 11.49097 C 26.2153 %
800 11-10-2019 00:00:00 12.41458 C 28.8194 %
Sensor: Nr:Datum:Temp:Feuchte:
Aussen-T/F 801 12-10-2019 00:00:00 13.21111 C 29.6875 %
802 13-10-2019 00:00:00 16.35417 C 28.4722 %
803 14-10-2019 00:00:00 15.8125 C 27.6528 %
804 15-10-2019 00:00:00 13.94028 C 29.8611 %
805 16-10-2019 00:00:00 12.42153 C 29.2917 %
806 17-10-2019 00:00:00 14.32708 C 27.4167 %
807 18-10-2019 00:00:00 12.3125 C 29.7292 %
808 19-10-2019 00:00:00 12.78194 C 28.2083 %
809 20-10-2019 00:00:00 13.0875 C 34.7778 %
810 21-10-2019 00:00:00 13.30486 C 29.2014 %
811 22-10-2019 00:00:00 11.45 C 27.8819 %
812 23-10-2019 00:00:00 10.68403 C 31.1181 %
813 24-10-2019 00:00:00 13.85208 C 27.9236 %
814 25-10-2019 00:00:00 13.1625 C 24.9444 %
815 26-10-2019 00:00:00 12.72639 C 27.5417 %
816 27-10-2019 00:00:00 9.68467 C 30.8733 %
817 28-10-2019 00:00:00 5.91597 C 35.2014 %
818 29-10-2019 00:00:00 6.21181 C 29.3264 %
819 30-10-2019 00:00:00 2.93333 C 34.5347 %
820 31-10-2019 00:00:00 1.41875 C 34.8333 %
821 01-11-2019 00:00:00 5.44792 C 36.7292 %
822 02-11-2019 00:00:00 12.8125 C 27.6458 %
823 03-11-2019 00:00:00 11.45069 C 29.7639 %
824 04-11-2019 00:00:00 9.88542 C 30.2153 %
825 05-11-2019 00:00:00 9.25069 C 27.4306 %
Sensor: Nr:Datum:Temp:Feuchte:
Aussen-T/F 826 06-11-2019 00:00:00 8.33542 C 34.7014 %
827 07-11-2019 00:00:00 7.30278 C 33.8333 %
828 08-11-2019 00:00:00 4.29028 C 37.7153 %
829 09-11-2019 00:00:00 4.26806 C 33.1111 %
830 10-11-2019 00:00:00 2.51319 C 34.9861 %
831 11-11-2019 00:00:00 4.2 C 27.4792 %
832 12-11-2019 00:00:00 5.41667 C 25.4792 %
833 13-11-2019 00:00:00 4.93472 C 22.9861 %
834 14-11-2019 00:00:00 4.86042 C 26.9861 %
835 15-11-2019 00:00:00 4.08472 C 26.3333 %
836 16-11-2019 00:00:00 1.19444 C 38.8125 %
837 17-11-2019 00:00:00 2.39861 C 40.2708 %
838 18-11-2019 00:00:00 3.51667 C 36.2847 %
839 19-11-2019 00:00:00 3.06736 C 36.5833 %
840 20-11-2019 00:00:00 0.75972 C 37.8403 %
841 21-11-2019 00:00:00 1.18951 C 39.3846 %
842 22-11-2019 00:00:00 3.65972 C 35.6806 %
843 23-11-2019 00:00:00 4.64653 C 33.3889 %
844 24-11-2019 00:00:00 1.99861 C 41.4722 %
845 25-11-2019 00:00:00 4.16319 C 39.3681 %
846 26-11-2019 00:00:00 7.75903 C 34.8472 %
847 27-11-2019 00:00:00 9.72083 C 30.6875 %
848 28-11-2019 00:00:00 10.55833 C 22.1319 %
849 29-11-2019 00:00:00 5.75486 C 30.7639 %
850 30-11-2019 00:00:00 0.48194 C 42.0972 %
Sensor: Nr:Datum:Temp:Feuchte:
Aussen-T/F 851 01-12-2019 00:00:00 1.14236 C 33.0139 %
852 02-12-2019 00:00:00 1.20556 C 36.2986 %
853 03-12-2019 00:00:00 3.97431 C 39.2292 %
854 04-12-2019 00:00:00 0.41389 C 41.6111 %
855 05-12-2019 00:00:00 -2.03194 C 42.0972 %
856 06-12-2019 00:00:00 2.6125 C 34.4722 %
857 07-12-2019 00:00:00 8.20694 C 27.7292 %
858 08-12-2019 00:00:00 9.69931 C 24.2778 %
859 09-12-2019 00:00:00 7.09444 C 23.9722 %
860 10-12-2019 00:00:00 2.37361 C 34.0000 %
861 11-12-2019 00:00:00 3.12569 C 39.3056 %
862 12-12-2019 00:00:00 2.64931 C 37.2500 %
863 13-12-2019 00:00:00 3.25278 C 34.0069 %
864 14-12-2019 00:00:00 6.22222 C 28.0625 %
865 15-12-2019 00:00:00 7.24792 C 30.8958 %
866 16-12-2019 00:00:00 7.47361 C 39.2986 %
867 17-12-2019 00:00:00 9.69514 C 31.9653 %
868 18-12-2019 00:00:00 6.95069 C 37.4792 %
869 19-12-2019 00:00:00 4.60972 C 40.5417 %
870 20-12-2019 00:00:00 6.87778 C 35.7847 %
871 21-12-2019 00:00:00 6.42778 C 32.4306 %
872 22-12-2019 00:00:00 7.57917 C 31.0556 %
873 23-12-2019 00:00:00 7.34861 C 28.6111 %
874 24-12-2019 00:00:00 7.20278 C 29.9097 %
875 25-12-2019 00:00:00 6.91944 C 32.8333 %
Sensor: Nr:Datum:Temp:Feuchte:
Aussen-T/F 876 26-12-2019 00:00:00 4.25278 C 40.6250 %
877 27-12-2019 00:00:00 4.41181 C 36.8819 %
878 28-12-2019 00:00:00 -1.22431 C 42.5000 %
879 29-12-2019 00:00:00 -2.07708 C 39.8819 %
880 30-12-2019 00:00:00 -1.99931 C 39.1319 %
881 31-12-2019 00:00:00 -0.41736 C 39.5556 %
882 01-01-2020 00:00:00 -0.10764 C 41.3403 %
883 02-01-2020 00:00:00 0.98958 C 39.7014 %
884 03-01-2020 00:00:00 7.00972 C 33.4653 %
885 04-01-2020 00:00:00 4.78264 C 32.5903 %
886 05-01-2020 00:00:00 5.21806 C 35.8750 %
887 06-01-2020 00:00:00 2.11667 C 38.1667 %
888 07-01-2020 00:00:00 4.43611 C 34.6944 %
889 08-01-2020 00:00:00 7.71389 C 34.4167 %
890 09-01-2020 00:00:00 10.33542 C 35.2292 %
891 10-01-2020 00:00:00 8.27917 C 30.8958 %
892 11-01-2020 00:00:00 3.61806 C 33.7639 %
893 12-01-2020 00:00:00 4.57083 C 30.3889 %
894 13-01-2020 00:00:00 5.88472 C 35.0903 %
895 14-01-2020 00:00:00 9.28264 C 24.1181 %
896 15-01-2020 00:00:00 10.27083 C 23.7500 %
897 16-01-2020 00:00:00 7.07569 C 40.1944 %
898 17-01-2020 00:00:00 5.27986 C 39.1944 %
899 18-01-2020 00:00:00 3.79028 C 32.6042 %
900 19-01-2020 00:00:00 3.01389 C 40.8194 %
Sensor: Nr:Datum:Temp:Feuchte:
Aussen-T/F 901 20-01-2020 00:00:00 1.64861 C 39.3889 %
902 21-01-2020 00:00:00 -2.675 C 44.7986 %
903 22-01-2020 00:00:00 -1.95347 C 44.7153 %
904 23-01-2020 00:00:00 0.53819 C 43.6458 %
905 24-01-2020 00:00:00 0.81319 C 35.7222 %
906 25-01-2020 00:00:00 1.99236 C 39.2014 %
907 26-01-2020 00:00:00 2.13056 C 41.5625 %
908 27-01-2020 00:00:00 5.48542 C 39.8264 %
909 28-01-2020 00:00:00 5.07708 C 30.3750 %
910 29-01-2020 00:00:00 4.20764 C 29.8611 %
911 30-01-2020 00:00:00 7.57569 C 29.5694 %
912 31-01-2020 00:00:00 12.86181 C 27.9167 %
913 01-02-2020 00:00:00 11.16597 C 32.0972 %
914 02-02-2020 00:00:00 9.925 C 31.1319 %
915 03-02-2020 00:00:00 10.19236 C 29.5139 %
916 04-02-2020 00:00:00 4.29514 C 36.4097 %
917 05-02-2020 00:00:00 3.05069 C 37.1458 %
918 06-02-2020 00:00:00 0.04514 C 42.7500 %
919 07-02-2020 00:00:00 -0.30764 C 42.8264 %
920 08-02-2020 00:00:00 1.01389 C 43.0069 %
921 09-02-2020 00:00:00 8.36458 C 32.5764 %
922 10-02-2020 00:00:00 7.85 C 31.3611 %
923 11-02-2020 00:00:00 5.29167 C 24.6597 %
924 12-02-2020 00:00:00 4.32083 C 30.5972 %
925 13-02-2020 00:00:00 3.32917 C 42.1250 %
Sensor: Nr:Datum:Temp:Feuchte:
Aussen-T/F 926 14-02-2020 00:00:00 5.46458 C 39.2639 %
927 15-02-2020 00:00:00 5.89931 C 38.0278 %
928 16-02-2020 00:00:00 14.44931 C 23.2431 %
929 17-02-2020 00:00:00 8.25903 C 32.4167 %
930 18-02-2020 00:00:00 6.89097 C 31.0347 %
931 19-02-2020 00:00:00 5.73889 C 30.1875 %
932 20-02-2020 00:00:00 7.7125 C 32.9722 %
933 21-02-2020 00:00:00 4.71042 C 33.5972 %
934 22-02-2020 00:00:00 7.67986 C 30.0347 %
935 23-02-2020 00:00:00 10.01389 C 35.3403 %
936 24-02-2020 00:00:00 7.74653 C 36.3194 %
937 25-02-2020 00:00:00 8.81597 C 32.2778 %
938 26-02-2020 00:00:00 4.37431 C 33.6806 %
939 27-02-2020 00:00:00 2.22153 C 41.6806 %
940 28-02-2020 00:00:00 3.52431 C 38.4514 %
941 29-02-2020 00:00:00 8.60556 C 34.8889 %
942 01-03-2020 00:00:00 7.15694 C 36.0000 %
943 02-03-2020 00:00:00 5.99375 C 40.1667 %
944 03-03-2020 00:00:00 4.26806 C 39.6458 %
945 04-03-2020 00:00:00 5.28958 C 37.5764 %
946 05-03-2020 00:00:00 5.45764 C 43.0833 %
947 06-03-2020 00:00:00 5.63958 C 40.4931 %
948 07-03-2020 00:00:00 6.26458 C 33.7569 %
949 08-03-2020 00:00:00 9.46458 C 32.2361 %
950 09-03-2020 00:00:00 7.81875 C 35.4514 %
Sensor: Nr:Datum:Temp:Feuchte:
Aussen-T/F 951 10-03-2020 00:00:00 9.06181 C 39.4514 %
952 11-03-2020 00:00:00 14.0375 C 35.2639 %
953 12-03-2020 00:00:00 11.01597 C 30.3681 %
954 13-03-2020 00:00:00 6.99236 C 33.4236 %
955 14-03-2020 00:00:00 5.89028 C 38.1667 %
956 15-03-2020 00:00:00 9.14653 C 32.2153 %
957 16-03-2020 00:00:00 9.43264 C 35.6667 %
958 17-03-2020 00:00:00 12.02708 C 33.7847 %
959 18-03-2020 00:00:00 9.92639 C 36.2153 %
960 19-03-2020 00:00:00 12.58194 C 32.0417 %
961 20-03-2020 00:00:00 10.52657 C 36.2308 %
962 21-03-2020 00:00:00 5.89653 C 34.6597 %
963 22-03-2020 00:00:00 4.30139 C 28.5278 %
964 23-03-2020 00:00:00 3.12292 C 27.0764 %
965 24-03-2020 00:00:00 2.82431 C 27.8403 %
966 25-03-2020 00:00:00 3.67014 C 25.0486 %
967 26-03-2020 00:00:00 5.25486 C 23.4931 %
968 27-03-2020 00:00:00 8.10139 C 29.8819 %
969 28-03-2020 00:00:00 9.69236 C 30.9306 %
970 29-03-2020 00:00:00 5.0942 C 30.1377 %
971 30-03-2020 00:00:00 2.89028 C 29.9167 %
972 31-03-2020 00:00:00 5.79792 C 30.1528 %
973 01-04-2020 00:00:00 4.16111 C 29.6944 %
974 02-04-2020 00:00:00 5.26806 C 31.1944 %
975 03-04-2020 00:00:00 7.93542 C 28.5069 %
Sensor: Nr:Datum:Temp:Feuchte:
Aussen-T/F 976 04-04-2020 00:00:00 6.89375 C 31.8958 %
977 05-04-2020 00:00:00 9.74514 C 32.0625 %
978 06-04-2020 00:00:00 12.17708 C 29.7431 %
979 07-04-2020 00:00:00 14.2875 C 28.9028 %
980 08-04-2020 00:00:00 15.02153 C 31.1528 %
981 09-04-2020 00:00:00 15.89514 C 27.6458 %
982 10-04-2020 00:00:00 14.80972 C 29.8333 %
983 11-04-2020 00:00:00 14.775 C 25.4861 %
984 12-04-2020 00:00:00 15.71319 C 27.3056 %
985 13-04-2020 00:00:00 9.43542 C 29.6944 %
986 14-04-2020 00:00:00 6.54583 C 28.1042 %
987 15-04-2020 00:00:00 9.17222 C 30.8750 %
988 16-04-2020 00:00:00 13.09792 C 29.6667 %
989 17-04-2020 00:00:00 15.68056 C 30.2500 %
990 18-04-2020 00:00:00 14.81597 C 32.5000 %
991 19-04-2020 00:00:00 13.35694 C 32.8889 %
992 20-04-2020 00:00:00 12.80069 C 22.9861 %
993 21-04-2020 00:00:00 13.68472 C 21.3889 %
994 22-04-2020 00:00:00 14.69375 C 23.2153 %
995 23-04-2020 00:00:00 14.90347 C 25.2917 %
996 24-04-2020 00:00:00 14.72361 C 27.0278 %
997 25-04-2020 00:00:00 13.03611 C 25.6597 %
998 26-04-2020 00:00:00 12.22917 C 31.0069 %
999 27-04-2020 00:00:00 13.17153 C 29.7431 %
1000 28-04-2020 00:00:00 12.62153 C 36.5556 %
Sensor: Nr:Datum:Temp:Feuchte:
Aussen-T/F 1001 29-04-2020 00:00:00 14.57569 C 31.0903 %
1002 30-04-2020 00:00:00 12.09722 C 36.4583 %
1003 01-05-2020 00:00:00 10.66042 C 37.3542 %
1004 02-05-2020 00:00:00 10.00764 C 36.3611 %
1005 03-05-2020 00:00:00 10.75833 C 34.4653 %
1006 04-05-2020 00:00:00 11.74722 C 36.3681 %
1007 05-05-2020 00:00:00 11.26667 C 32.2083 %
1008 06-05-2020 00:00:00 11.08403 C 30.6181 %
1009 07-05-2020 00:00:00 13.50764 C 30.8056 %
1010 08-05-2020 00:00:00 15.85208 C 29.3056 %
1011 09-05-2020 00:00:00 16.28611 C 29.0139 %
1012 10-05-2020 00:00:00 15.97153 C 36.6389 %
1013 11-05-2020 00:00:00 9.26875 C 32.4028 %
1014 12-05-2020 00:00:00 8.55764 C 29.8264 %
1015 13-05-2020 00:00:00 9.41528 C 30.4444 %
1016 14-05-2020 00:00:00 9.74792 C 29.2917 %
1017 15-05-2020 00:00:00 11.27986 C 28.5903 %
1018 16-05-2020 00:00:00 11.95833 C 29.2986 %
1019 17-05-2020 00:00:00 14.25556 C 28.0625 %
1020 18-05-2020 00:00:00 16.81042 C 28.8681 %
1021 19-05-2020 00:00:00 17.67986 C 29.2153 %
1022 20-05-2020 00:00:00 18.90417 C 29.3611 %
1023 21-05-2020 00:00:00 20.425 C 29.2361 %
1024 22-05-2020 00:00:00 20.27222 C 29.9583 %
1025 23-05-2020 00:00:00 13.65972 C 37.1111 %
Sensor: Nr:Datum:Temp:Feuchte:
Aussen-T/F 1026 24-05-2020 00:00:00 13.68056 C 31.3750 %
1027 25-05-2020 00:00:00 16.41181 C 30.5625 %
1028 26-05-2020 00:00:00 15.69306 C 31.7292 %
1029 27-05-2020 00:00:00 18.09444 C 29.6597 %
1030 28-05-2020 00:00:00 18.81736 C 24.7153 %
1031 29-05-2020 00:00:00 16.43681 C 26.8056 %
1032 30-05-2020 00:00:00 16.61667 C 24.5000 %
1033 31-05-2020 00:00:00 16.21736 C 26.2153 %
1034 01-06-2020 00:00:00 19.27153 C 26.8889 %
1035 02-06-2020 00:00:00 21.30486 C 25.6250 %
1036 03-06-2020 00:00:00 21.06597 C 25.1042 %
1037 04-06-2020 00:00:00 14.39583 C 39.8403 %
1038 05-06-2020 00:00:00 11.4625 C 37.4306 %
1039 06-06-2020 00:00:00 12.76111 C 34.0347 %
1040 07-06-2020 00:00:00 13.84514 C 31.7083 %
1041 08-06-2020 00:00:00 15.57014 C 31.2986 %
1042 09-06-2020 00:00:00 14.49861 C 37.8333 %
1043 10-06-2020 00:00:00 15.8625 C 35.7431 %
1044 11-06-2020 00:00:00 15.99028 C 36.5486 %
1045 12-06-2020 00:00:00 20.73403 C 31.5139 %
1046 13-06-2020 00:00:00 21.73403 C 27.8889 %
1047 14-06-2020 00:00:00 19.10208 C 32.2222 %
1048 15-06-2020 00:00:00 19.14306 C 31.8264 %
1049 16-06-2020 00:00:00 18.22986 C 36.8750 %
1050 17-06-2020 00:00:00 18.10486 C 36.5347 %
Sensor: Nr:Datum:Temp:Feuchte:
Aussen-T/F 1051 18-06-2020 00:00:00 19.72569 C 31.4722 %
1052 19-06-2020 00:00:00 17.11181 C 35.9028 %
1053 20-06-2020 00:00:00 17.44514 C 34.6319 %
1054 21-06-2020 00:00:00 20.65208 C 31.4097 %
1055 22-06-2020 00:00:00 20.03958 C 29.0347 %
1056 23-06-2020 00:00:00 21.27708 C 29.8472 %
1057 24-06-2020 00:00:00 22.32569 C 27.2222 %
1058 25-06-2020 00:00:00 22.52222 C 26.3264 %
1059 26-06-2020 00:00:00 23.33542 C 29.4306 %
1060 27-06-2020 00:00:00 23.59236 C 27.9236 %
1061 28-06-2020 00:00:00 20.15625 C 29.1181 %
1062 29-06-2020 00:00:00 18.91667 C 29.3750 %
1063 30-06-2020 00:00:00 17.63611 C 29.2500 %
1064 01-07-2020 00:00:00 22.10764 C 27.2500 %
1065 02-07-2020 00:00:00 19.35903 C 32.8611 %
1066 03-07-2020 00:00:00 18.4375 C 30.9306 %
1067 04-07-2020 00:00:00 19.56528 C 27.8056 %
1068 05-07-2020 00:00:00 23.42222 C 26.5069 %
1069 06-07-2020 00:00:00 16.97292 C 27.8264 %
1070 07-07-2020 00:00:00 16.98611 C 30.0903 %
1071 08-07-2020 00:00:00 15.99444 C 36.0486 %
1072 09-07-2020 00:00:00 22.42361 C 30.2153 %
1073 10-07-2020 00:00:00 18.77222 C 32.6042 %
1074 11-07-2020 00:00:00 17.44167 C 29.9514 %
1075 12-07-2020 00:00:00 18.36944 C 29.9792 %
Sensor: Nr:Datum:Temp:Feuchte:
Aussen-T/F 1076 13-07-2020 00:00:00 20.63333 C 27.9931 %
1077 14-07-2020 00:00:00 19.57917 C 28.7153 %
1078 15-07-2020 00:00:00 18.56806 C 29.6389 %
1079 16-07-2020 00:00:00 16.03611 C 38.0625 %
1080 17-07-2020 00:00:00 19.64375 C 32.7222 %
1081 18-07-2020 00:00:00 20.24406 C 31.3636 %
1082 19-07-2020 00:00:00 23.3625 C 27.6597 %
1083 20-07-2020 00:00:00 20.29931 C 28.6111 %
1084 21-07-2020 00:00:00 18.99375 C 27.2083 %
1085 22-07-2020 00:00:00 18.52222 C 28.8542 %
1086 23-07-2020 00:00:00 20.38472 C 26.9306 %
1087 24-07-2020 00:00:00 21.93889 C 24.3333 %
1088 25-07-2020 00:00:00 21.73681 C 27.9583 %
1089 26-07-2020 00:00:00 21.61944 C 29.2361 %
1090 27-07-2020 00:00:00 22.74306 C 28.1181 %
1091 28-07-2020 00:00:00 23.63681 C 22.2569 %
1092 29-07-2020 00:00:00 20.21875 C 27.2083 %
1093 30-07-2020 00:00:00 21.74306 C 27.3958 %
1094 31-07-2020 00:00:00 25.38125 C 25.3056 %
1095 01-08-2020 00:00:00 22.83611 C 31.0000 %
1096 02-08-2020 00:00:00 22.3625 C 29.5694 %
Sensor: Nr:Datum:Temp:Feuchte:
G-T/H 1 03-08-2017 00:00:00 22.08 C 67.0000 %
2 04-08-2017 00:00:00 21.2975 C 66.9500 %
3 05-08-2017 00:00:00 21.27333 C 64.2583 %
4 06-08-2017 00:00:00 20.1425 C 61.5500 %
5 07-08-2017 00:00:00 19.51083 C 54.8250 %
6 08-08-2017 00:00:00 19.4725 C 62.0000 %
7 09-08-2017 00:00:00 19.2825 C 61.9750 %
8 10-08-2017 00:00:00 18.88083 C 65.6083 %
9 11-08-2017 00:00:00 17.85167 C 68.4083 %
10 12-08-2017 00:00:00 17.38667 C 69.6917 %
11 13-08-2017 00:00:00 17.925 C 70.8917 %
12 14-08-2017 00:00:00 19.18583 C 69.3417 %
13 15-08-2017 00:00:00 19.95167 C 75.4000 %
14 16-08-2017 00:00:00 20.395 C 70.4750 %
15 17-08-2017 00:00:00 20.77833 C 67.9583 %
16 18-08-2017 00:00:00 20.07417 C 69.9500 %
17 19-08-2017 00:00:00 18.63167 C 65.2583 %
18 20-08-2017 00:00:00 18.18833 C 65.5833 %
19 21-08-2017 00:00:00 18.33833 C 61.8250 %
20 22-08-2017 00:00:00 18.3375 C 62.2833 %
21 23-08-2017 00:00:00 19.39 C 63.6250 %
22 24-08-2017 00:00:00 19.39667 C 66.6750 %
23 25-08-2017 00:00:00 19.01417 C 68.4583 %
24 26-08-2017 00:00:00 19.33833 C 70.7917 %
25 27-08-2017 00:00:00 19.525 C 71.7250 %
Sensor: Nr:Datum:Temp:Feuchte:
G-T/H 26 28-08-2017 00:00:00 20.30583 C 68.8833 %
27 29-08-2017 00:00:00 21.09333 C 67.8833 %
28 30-08-2017 00:00:00 20.41167 C 70.1917 %
29 31-08-2017 00:00:00 19.86975 C 70.1176 %
30 01-09-2017 00:00:00 18.04083 C 64.9250 %
31 02-09-2017 00:00:00 17.755 C 68.6500 %
32 03-09-2017 00:00:00 16.90667 C 68.1250 %
33 04-09-2017 00:00:00 16.00917 C 69.3750 %
34 05-09-2017 00:00:00 18.28917 C 72.6000 %
35 06-09-2017 00:00:00 18.70833 C 64.8917 %
36 07-09-2017 00:00:00 17.72833 C 62.5167 %
37 08-09-2017 00:00:00 17.6225 C 64.3417 %
38 09-09-2017 00:00:00 17.3775 C 67.9250 %
39 10-09-2017 00:00:00 16.50417 C 66.3083 %
40 11-09-2017 00:00:00 16.29333 C 68.5500 %
41 12-09-2017 00:00:00 16.13083 C 70.5250 %
42 13-09-2017 00:00:00 15.99917 C 71.1667 %
43 14-09-2017 00:00:00 15.7775 C 71.3250 %
44 15-09-2017 00:00:00 15.14 C 71.7083 %
45 16-09-2017 00:00:00 14.15 C 67.6833 %
46 17-09-2017 00:00:00 14.06833 C 69.8750 %
47 18-09-2017 00:00:00 13.68417 C 70.3917 %
48 19-09-2017 00:00:00 14.2875 C 73.3667 %
49 20-09-2017 00:00:00 14.18167 C 72.9250 %
50 21-09-2017 00:00:00 14.33333 C 68.9000 %
Sensor: Nr:Datum:Temp:Feuchte:
G-T/H 51 22-09-2017 00:00:00 14.20083 C 71.1333 %
52 23-09-2017 00:00:00 14.86583 C 71.6917 %
53 24-09-2017 00:00:00 13.5 C 74.4750 %
54 25-09-2017 00:00:00 14.49667 C 74.4000 %
55 26-09-2017 00:00:00 14.90833 C 74.1417 %
56 27-09-2017 00:00:00 15.24333 C 75.2000 %
57 28-09-2017 00:00:00 15.29833 C 75.7917 %
58 29-09-2017 00:00:00 16.4625 C 76.9750 %
59 30-09-2017 00:00:00 16.51167 C 76.8667 %
60 01-10-2017 00:00:00 15.07167 C 73.4917 %
61 02-10-2017 00:00:00 14.96167 C 75.8333 %
62 03-10-2017 00:00:00 15.05583 C 75.3167 %
63 04-10-2017 00:00:00 14.14417 C 72.4833 %
64 05-10-2017 00:00:00 14.39917 C 74.4417 %
65 06-10-2017 00:00:00 13.515 C 72.0000 %
66 07-10-2017 00:00:00 13.36583 C 74.1000 %
67 08-10-2017 00:00:00 13.59833 C 76.1167 %
68 09-10-2017 00:00:00 13.71417 C 76.4750 %
69 10-10-2017 00:00:00 14.10667 C 77.2250 %
70 11-10-2017 00:00:00 14.48833 C 77.7500 %
71 12-10-2017 00:00:00 14.45833 C 77.2083 %
72 13-10-2017 00:00:00 14.39417 C 77.1167 %
73 14-10-2017 00:00:00 14.55667 C 77.2000 %
74 15-10-2017 00:00:00 14.22167 C 77.1917 %
75 16-10-2017 00:00:00 14.72417 C 80.6250 %
Sensor: Nr:Datum:Temp:Feuchte:
G-T/H 76 17-10-2017 00:00:00 14.50583 C 80.0333 %
77 18-10-2017 00:00:00 14.23 C 79.1833 %
78 19-10-2017 00:00:00 13.8025 C 76.9750 %
79 20-10-2017 00:00:00 14.11261 C 77.8235 %
80 21-10-2017 00:00:00 13.58417 C 75.6250 %
81 22-10-2017 00:00:00 13.64333 C 74.5083 %
82 23-10-2017 00:00:00 13.15167 C 73.8667 %
83 24-10-2017 00:00:00 13.7125 C 77.3167 %
84 25-10-2017 00:00:00 14.60167 C 78.0000 %
85 26-10-2017 00:00:00 14.7325 C 78.0000 %
86 27-10-2017 00:00:00 14.395 C 76.2583 %
87 28-10-2017 00:00:00 13.38917 C 71.6000 %
88 29-10-2017 00:00:00 13.2736 C 70.4000 %
89 30-10-2017 00:00:00 11.94167 C 67.1167 %
90 31-10-2017 00:00:00 11.315 C 67.7083 %
91 01-11-2017 00:00:00 11.75833 C 71.3750 %
92 02-11-2017 00:00:00 11.43667 C 71.0500 %
93 03-11-2017 00:00:00 11.36333 C 71.6167 %
94 04-11-2017 00:00:00 11.05083 C 71.6417 %
95 05-11-2017 00:00:00 11.7925 C 73.8417 %
96 06-11-2017 00:00:00 10.80417 C 68.9083 %
97 07-11-2017 00:00:00 10.16167 C 68.1500 %
98 08-11-2017 00:00:00 10.51583 C 72.8417 %
99 09-11-2017 00:00:00 10.89833 C 74.4833 %
100 10-11-2017 00:00:00 10.70833 C 72.4333 %
Sensor: Nr:Datum:Temp:Feuchte:
G-T/H 101 11-11-2017 00:00:00 10.25917 C 71.3500 %
102 12-11-2017 00:00:00 9.99417 C 71.9333 %
103 13-11-2017 00:00:00 9.82667 C 72.4833 %
104 14-11-2017 00:00:00 9.44833 C 71.5833 %
105 15-11-2017 00:00:00 9.78417 C 73.4833 %
106 16-11-2017 00:00:00 9.8675 C 71.0000 %
107 17-11-2017 00:00:00 10.21917 C 72.6917 %
108 18-11-2017 00:00:00 8.93333 C 68.2833 %
109 19-11-2017 00:00:00 9.44917 C 70.7667 %
110 20-11-2017 00:00:00 9.4175 C 70.1500 %
111 21-11-2017 00:00:00 10.07833 C 73.5833 %
112 22-11-2017 00:00:00 10.72 C 73.9917 %
113 23-11-2017 00:00:00 10.0175 C 71.3000 %
114 24-11-2017 00:00:00 11.32583 C 75.4750 %
115 25-11-2017 00:00:00 10.815 C 70.9083 %
116 26-11-2017 00:00:00 9.25 C 65.7167 %
117 27-11-2017 00:00:00 9.09917 C 68.4083 %
118 28-11-2017 00:00:00 9.38167 C 70.0917 %
119 29-11-2017 00:00:00 8.70583 C 68.4167 %
120 30-11-2017 00:00:00 8.38083 C 67.8167 %
121 01-12-2017 00:00:00 7.8275 C 66.9750 %
122 02-12-2017 00:00:00 6.8025 C 64.3667 %
123 03-12-2017 00:00:00 7.2 C 63.1583 %
124 04-12-2017 00:00:00 7.5275 C 69.7417 %
125 05-12-2017 00:00:00 8.31833 C 73.2750 %
Sensor: Nr:Datum:Temp:Feuchte:
G-T/H 126 06-12-2017 00:00:00 8.98333 C 73.6833 %
127 07-12-2017 00:00:00 8.76667 C 67.2083 %
128 08-12-2017 00:00:00 8.66917 C 66.2417 %
129 09-12-2017 00:00:00 7.4925 C 59.9167 %
130 10-12-2017 00:00:00 7.18333 C 64.1750 %
131 11-12-2017 00:00:00 7.94417 C 72.5667 %
132 12-12-2017 00:00:00 8.19083 C 68.4083 %
133 13-12-2017 00:00:00 7.93917 C 67.1333 %
134 14-12-2017 00:00:00 7.92667 C 69.1000 %
135 15-12-2017 00:00:00 7.94167 C 70.5000 %
136 16-12-2017 00:00:00 7.925 C 71.0833 %
137 17-12-2017 00:00:00 7.8375 C 69.7667 %
138 18-12-2017 00:00:00 7.10333 C 67.6500 %
139 19-12-2017 00:00:00 7.60417 C 70.4667 %
140 20-12-2017 00:00:00 8.29083 C 73.0000 %
141 21-12-2017 00:00:00 9.43333 C 74.8833 %
142 22-12-2017 00:00:00 10.32333 C 75.8833 %
143 23-12-2017 00:00:00 10.45667 C 76.0750 %
144 24-12-2017 00:00:00 10.61417 C 75.9000 %
145 25-12-2017 00:00:00 10.30833 C 71.7667 %
146 26-12-2017 00:00:00 9.0975 C 68.1083 %
147 27-12-2017 00:00:00 8.905 C 71.4083 %
148 28-12-2017 00:00:00 8.96167 C 70.6417 %
149 29-12-2017 00:00:00 14.36852 C 70.8611 %
150 30-12-2017 00:00:00 8.1925 C 73.4750 %
Sensor: Nr:Datum:Temp:Feuchte:
G-T/H 151 31-12-2017 00:00:00 10.73 C 74.9167 %
152 01-01-2018 00:00:00 10.91333 C 70.9167 %
153 02-01-2018 00:00:00 9.93833 C 71.7000 %
154 03-01-2018 00:00:00 9.98417 C 71.9333 %
155 04-01-2018 00:00:00 9.81167 C 73.7667 %
156 05-01-2018 00:00:00 10.06833 C 72.5333 %
157 06-01-2018 00:00:00 9.95417 C 74.1667 %
158 07-01-2018 00:00:00 9.5275 C 72.0083 %
159 08-01-2018 00:00:00 8.9575 C 69.3000 %
160 09-01-2018 00:00:00 8.81583 C 71.4583 %
161 10-01-2018 00:00:00 9.03917 C 73.1917 %
162 11-01-2018 00:00:00 9.4725 C 74.4333 %
163 12-01-2018 00:00:00 9.7375 C 75.0000 %
164 13-01-2018 00:00:00 9.48 C 71.6333 %
165 14-01-2018 00:00:00 8.7325 C 64.1833 %
166 15-01-2018 00:00:00 8.00083 C 65.2500 %
167 16-01-2018 00:00:00 8.6025 C 70.4000 %
168 17-01-2018 00:00:00 8.19 C 66.7833 %
169 18-01-2018 00:00:00 8.2875 C 68.1000 %
170 19-01-2018 00:00:00 8.47333 C 67.2417 %
171 20-01-2018 00:00:00 7.515 C 67.7833 %
172 21-01-2018 00:00:00 7.5275 C 70.9250 %
173 22-01-2018 00:00:00 7.75 C 71.9417 %
174 23-01-2018 00:00:00 8.69492 C 73.4661 %
175 24-01-2018 00:00:00 9.75556 C 74.8120 %
Sensor: Nr:Datum:Temp:Feuchte:
G-T/H 176 25-01-2018 00:00:00 10.6075 C 75.1917 %
177 26-01-2018 00:00:00 10.3125 C 74.1917 %
178 27-01-2018 00:00:00 9.54 C 72.2583 %
179 28-01-2018 00:00:00 9.4625 C 73.1917 %
180 29-01-2018 00:00:00 10.13833 C 74.2667 %
181 30-01-2018 00:00:00 9.76167 C 71.3917 %
182 31-01-2018 00:00:00 9.43 C 72.7083 %
183 01-02-2018 00:00:00 8.55 C 67.8083 %
184 02-02-2018 00:00:00 7.83917 C 68.3833 %
185 03-02-2018 00:00:00 7.98992 C 68.2521 %
186 04-02-2018 00:00:00 7.4 C 63.4333 %
187 05-02-2018 00:00:00 6.47 C 60.2917 %
188 06-02-2018 00:00:00 6.30833 C 61.8333 %
189 07-02-2018 00:00:00 6.2075 C 63.0250 %
190 08-02-2018 00:00:00 5.975 C 61.9833 %
191 09-02-2018 00:00:00 5.43333 C 63.6917 %
192 10-02-2018 00:00:00 6.105 C 66.3083 %
193 11-02-2018 00:00:00 6.99167 C 66.3833 %
194 12-02-2018 00:00:00 7.07833 C 64.5250 %
195 13-02-2018 00:00:00 6.335 C 60.4167 %
196 14-02-2018 00:00:00 5.87917 C 61.6500 %
197 15-02-2018 00:00:00 5.88583 C 66.8833 %
198 16-02-2018 00:00:00 6.29667 C 70.6750 %
199 17-02-2018 00:00:00 6.07083 C 67.1000 %
200 18-02-2018 00:00:00 5.89667 C 66.5500 %
Sensor: Nr:Datum:Temp:Feuchte:
G-T/H 201 19-02-2018 00:00:00 5.89083 C 68.3167 %
202 20-02-2018 00:00:00 6.01 C 66.1333 %
203 21-02-2018 00:00:00 5.89083 C 63.8500 %
204 22-02-2018 00:00:00 5.73333 C 61.2667 %
205 23-02-2018 00:00:00 5.48583 C 60.5583 %
206 24-02-2018 00:00:00 5.12583 C 59.3667 %
207 25-02-2018 00:00:00 4.93667 C 56.8667 %
208 26-02-2018 00:00:00 4.61167 C 55.2417 %
209 27-02-2018 00:00:00 4.5275 C 52.9667 %
210 28-02-2018 00:00:00 4.28667 C 51.9750 %
211 01-03-2018 00:00:00 4.305 C 53.0333 %
212 02-03-2018 00:00:00 4.77417 C 54.7917 %
213 03-03-2018 00:00:00 5.21917 C 60.2833 %
214 04-03-2018 00:00:00 6.01083 C 65.3000 %
215 05-03-2018 00:00:00 7.26 C 67.7083 %
216 06-03-2018 00:00:00 7.275 C 64.2583 %
217 07-03-2018 00:00:00 8.05833 C 67.2083 %
218 08-03-2018 00:00:00 8.30667 C 69.2500 %
219 09-03-2018 00:00:00 8.13 C 70.0750 %
220 10-03-2018 00:00:00 8.92167 C 72.5500 %
221 11-03-2018 00:00:00 10.33 C 74.6417 %
222 12-03-2018 00:00:00 10.33667 C 74.2417 %
223 13-03-2018 00:00:00 10.06083 C 73.3417 %
224 14-03-2018 00:00:00 9.31667 C 70.8667 %
225 15-03-2018 00:00:00 8.67083 C 68.2833 %
Sensor: Nr:Datum:Temp:Feuchte:
G-T/H 226 16-03-2018 00:00:00 9.4175 C 72.0250 %
227 17-03-2018 00:00:00 8.13333 C 61.2417 %
228 18-03-2018 00:00:00 6.64 C 57.5417 %
229 19-03-2018 00:00:00 6.395 C 58.4417 %
230 20-03-2018 00:00:00 6.19167 C 59.8333 %
231 21-03-2018 00:00:00 6.24 C 61.0167 %
232 22-03-2018 00:00:00 6.45333 C 62.8500 %
233 23-03-2018 00:00:00 7.555 C 68.1250 %
234 24-03-2018 00:00:00 7.95833 C 66.2333 %
235 25-03-2018 00:00:00 7.42522 C 63.5130 %
236 26-03-2018 00:00:00 8.47583 C 65.8417 %
237 27-03-2018 00:00:00 8.32583 C 65.0083 %
238 28-03-2018 00:00:00 9.05 C 70.1833 %
239 29-03-2018 00:00:00 9.1875 C 67.9333 %
240 30-03-2018 00:00:00 8.73083 C 65.5333 %
241 31-03-2018 00:00:00 9.3075 C 68.4417 %
242 01-04-2018 00:00:00 9.65917 C 69.4500 %
243 02-04-2018 00:00:00 9.52333 C 68.1000 %
244 03-04-2018 00:00:00 10.725 C 69.7000 %
245 04-04-2018 00:00:00 11.48583 C 70.6333 %
246 05-04-2018 00:00:00 10.94833 C 68.8000 %
247 06-04-2018 00:00:00 9.26167 C 62.4833 %
248 07-04-2018 00:00:00 10.58667 C 62.3917 %
249 08-04-2018 00:00:00 13.47 C 59.0417 %
250 09-04-2018 00:00:00 14.53917 C 57.1667 %
Sensor: Nr:Datum:Temp:Feuchte:
G-T/H 251 10-04-2018 00:00:00 13.77667 C 63.5000 %
252 11-04-2018 00:00:00 13.00917 C 66.6083 %
253 12-04-2018 00:00:00 12.9425 C 66.9917 %
254 13-04-2018 00:00:00 12.73333 C 67.2917 %
255 14-04-2018 00:00:00 13.63417 C 61.7667 %
256 15-04-2018 00:00:00 13.92167 C 65.0333 %
257 16-04-2018 00:00:00 14.52167 C 62.0000 %
258 17-04-2018 00:00:00 14.20333 C 61.1500 %
259 18-04-2018 00:00:00 14.54417 C 62.2333 %
260 19-04-2018 00:00:00 14.79583 C 62.5583 %
261 20-04-2018 00:00:00 15.73333 C 61.3833 %
262 21-04-2018 00:00:00 15.80333 C 63.5083 %
263 22-04-2018 00:00:00 15.78333 C 66.2917 %
264 23-04-2018 00:00:00 17.01667 C 62.7833 %
265 24-04-2018 00:00:00 16.23833 C 56.5917 %
266 25-04-2018 00:00:00 15.21833 C 62.0333 %
267 26-04-2018 00:00:00 13.76 C 51.5583 %
268 27-04-2018 00:00:00 13.61917 C 56.6250 %
269 28-04-2018 00:00:00 13.9325 C 61.2917 %
270 29-04-2018 00:00:00 14.02083 C 64.6000 %
271 30-04-2018 00:00:00 14.6725 C 64.2917 %
272 01-05-2018 00:00:00 13.36417 C 58.0083 %
273 02-05-2018 00:00:00 13.24833 C 56.1500 %
274 03-05-2018 00:00:00 13.77 C 57.8750 %
275 04-05-2018 00:00:00 13.83917 C 58.3750 %
Sensor: Nr:Datum:Temp:Feuchte:
G-T/H 276 05-05-2018 00:00:00 15.43167 C 55.9333 %
277 06-05-2018 00:00:00 15.6825 C 57.6750 %
278 07-05-2018 00:00:00 17.61 C 52.7917 %
279 08-05-2018 00:00:00 18.74917 C 49.1583 %
280 09-05-2018 00:00:00 17.61417 C 55.5167 %
281 10-05-2018 00:00:00 16.74583 C 61.1667 %
282 11-05-2018 00:00:00 15.555 C 63.3500 %
283 12-05-2018 00:00:00 15.79083 C 63.9333 %
284 13-05-2018 00:00:00 16.08833 C 66.4583 %
285 14-05-2018 00:00:00 15.57667 C 68.2083 %
286 15-05-2018 00:00:00 16.8825 C 59.6083 %
287 16-05-2018 00:00:00 16.71333 C 63.0083 %
288 17-05-2018 00:00:00 15.91 C 63.1083 %
289 18-05-2018 00:00:00 15.1975 C 60.7083 %
290 19-05-2018 00:00:00 15.0375 C 63.1750 %
291 20-05-2018 00:00:00 15.13333 C 64.4667 %
292 21-05-2018 00:00:00 16.85667 C 64.3167 %
293 22-05-2018 00:00:00 17.2475 C 65.6333 %
294 23-05-2018 00:00:00 16.85417 C 68.0583 %
295 24-05-2018 00:00:00 16.56417 C 69.4500 %
296 25-05-2018 00:00:00 17.3275 C 69.1583 %
297 26-05-2018 00:00:00 18.92583 C 67.1167 %
298 27-05-2018 00:00:00 18.99167 C 68.2750 %
299 28-05-2018 00:00:00 18.94167 C 69.8667 %
300 29-05-2018 00:00:00 19.4375 C 69.9667 %
Sensor: Nr:Datum:Temp:Feuchte:
G-T/H 301 30-05-2018 00:00:00 19.22417 C 70.2750 %
302 31-05-2018 00:00:00 19.74667 C 69.8500 %
303 01-06-2018 00:00:00 19.70417 C 70.5583 %
304 02-06-2018 00:00:00 19.1175 C 70.5000 %
305 03-06-2018 00:00:00 19.86917 C 66.6000 %
306 04-06-2018 00:00:00 21.16 C 62.4500 %
307 05-06-2018 00:00:00 21.1225 C 62.2500 %
308 06-06-2018 00:00:00 20.28167 C 64.7000 %
309 07-06-2018 00:00:00 20.33167 C 66.7250 %
310 08-06-2018 00:00:00 20.14167 C 68.3250 %
311 09-06-2018 00:00:00 21.14508 C 68.4918 %
312 10-06-2018 00:00:00 20.73583 C 69.4833 %
313 11-06-2018 00:00:00 20.2075 C 70.2833 %
314 12-06-2018 00:00:00 18.93333 C 70.9417 %
315 13-06-2018 00:00:00 17.78333 C 67.8500 %
316 14-06-2018 00:00:00 17.08167 C 65.6167 %
317 15-06-2018 00:00:00 17.87667 C 69.7333 %
318 16-06-2018 00:00:00 19.23167 C 66.0250 %
319 17-06-2018 00:00:00 19.20917 C 66.1250 %
320 18-06-2018 00:00:00 18.5725 C 66.5167 %
321 19-06-2018 00:00:00 19.3025 C 68.1667 %
322 20-06-2018 00:00:00 21.34417 C 62.6417 %
323 21-06-2018 00:00:00 20.40083 C 61.7667 %
324 22-06-2018 00:00:00 18.12583 C 59.1417 %
325 23-06-2018 00:00:00 16.91917 C 60.9000 %
Sensor: Nr:Datum:Temp:Feuchte:
G-T/H 326 24-06-2018 00:00:00 17.08583 C 64.6833 %
327 25-06-2018 00:00:00 17.72833 C 66.0250 %
328 26-06-2018 00:00:00 18.48917 C 62.1583 %
329 27-06-2018 00:00:00 19.815 C 57.9000 %
330 28-06-2018 00:00:00 20.73667 C 53.0667 %
331 29-06-2018 00:00:00 22.01 C 53.8250 %
332 30-06-2018 00:00:00 22.90917 C 48.2667 %
333 01-07-2018 00:00:00 21.50833 C 49.2500 %
334 02-07-2018 00:00:00 21.34083 C 43.1083 %
335 03-07-2018 00:00:00 20.70167 C 49.9250 %
336 04-07-2018 00:00:00 21.1075 C 60.3667 %
337 05-07-2018 00:00:00 21.2225 C 66.7750 %
338 06-07-2018 00:00:00 20.8225 C 63.6917 %
339 07-07-2018 00:00:00 20.45126 C 62.5294 %
340 08-07-2018 00:00:00 20.11833 C 59.9000 %
341 09-07-2018 00:00:00 20.74917 C 55.1417 %
342 10-07-2018 00:00:00 20.3825 C 58.3167 %
343 11-07-2018 00:00:00 18.89583 C 62.6083 %
344 12-07-2018 00:00:00 18.92167 C 65.2500 %
345 13-07-2018 00:00:00 20.39417 C 62.1167 %
346 14-07-2018 00:00:00 20.52583 C 63.2833 %
347 15-07-2018 00:00:00 20.67417 C 63.4333 %
348 16-07-2018 00:00:00 20.8475 C 63.2583 %
349 17-07-2018 00:00:00 20.97167 C 63.0667 %
350 18-07-2018 00:00:00 20.9325 C 59.6167 %
Sensor: Nr:Datum:Temp:Feuchte:
G-T/H 351 19-07-2018 00:00:00 21.11667 C 54.9500 %
352 20-07-2018 00:00:00 21.86917 C 52.9083 %
353 21-07-2018 00:00:00 21.57333 C 58.8500 %
354 22-07-2018 00:00:00 20.75417 C 62.4750 %
355 23-07-2018 00:00:00 22.1575 C 57.9833 %
356 24-07-2018 00:00:00 23.88 C 52.9250 %
357 25-07-2018 00:00:00 24.83333 C 49.4917 %
358 26-07-2018 00:00:00 25.99417 C 48.0750 %
359 27-07-2018 00:00:00 25.445 C 46.9000 %
360 28-07-2018 00:00:00 24.04917 C 55.1667 %
361 29-07-2018 00:00:00 22.61667 C 58.5167 %
362 30-07-2018 00:00:00 24.22583 C 54.8000 %
363 31-07-2018 00:00:00 25.41833 C 51.8250 %
364 01-08-2018 00:00:00 23.80667 C 61.0833 %
365 02-08-2018 00:00:00 23.36417 C 62.3583 %
366 03-08-2018 00:00:00 24.53167 C 58.5333 %
367 04-08-2018 00:00:00 25.9125 C 50.5583 %
368 05-08-2018 00:00:00 24.74417 C 53.5917 %
369 06-08-2018 00:00:00 24.53333 C 49.9583 %
370 07-08-2018 00:00:00 24.12667 C 54.2583 %
371 08-08-2018 00:00:00 24.27667 C 57.4917 %
372 09-08-2018 00:00:00 23.23333 C 60.5250 %
373 10-08-2018 00:00:00 21.49417 C 54.0000 %
374 11-08-2018 00:00:00 20.81667 C 56.0583 %
375 12-08-2018 00:00:00 20.13 C 56.1333 %
Sensor: Nr:Datum:Temp:Feuchte:
G-T/H 376 13-08-2018 00:00:00 20.07083 C 60.5667 %
377 14-08-2018 00:00:00 19.80333 C 63.5000 %
378 15-08-2018 00:00:00 19.82917 C 65.0667 %
379 16-08-2018 00:00:00 19.9875 C 64.3500 %
380 17-08-2018 00:00:00 20.46083 C 64.9583 %
381 18-08-2018 00:00:00 19.96167 C 62.2667 %
382 19-08-2018 00:00:00 19.83667 C 62.1667 %
383 20-08-2018 00:00:00 21.2525 C 62.2667 %
384 21-08-2018 00:00:00 21.17667 C 63.9333 %
385 22-08-2018 00:00:00 21.1725 C 64.1750 %
386 23-08-2018 00:00:00 21.47667 C 64.7000 %
387 24-08-2018 00:00:00 21.1275 C 62.0417 %
388 25-08-2018 00:00:00 19.5075 C 59.1667 %
389 26-08-2018 00:00:00 18.22417 C 55.7083 %
390 27-08-2018 00:00:00 18.48167 C 60.4500 %
391 28-08-2018 00:00:00 18.53833 C 61.2250 %
392 29-08-2018 00:00:00 18.56917 C 62.2417 %
393 30-08-2018 00:00:00 18.82333 C 63.4833 %
394 31-08-2018 00:00:00 18.3025 C 59.8750 %
395 01-09-2018 00:00:00 17.4825 C 59.8917 %
396 02-09-2018 00:00:00 16.9325 C 62.1583 %
397 03-09-2018 00:00:00 18.13333 C 66.0000 %
398 04-09-2018 00:00:00 19.61083 C 66.7083 %
399 05-09-2018 00:00:00 19.59583 C 67.1750 %
400 06-09-2018 00:00:00 19.38917 C 68.3667 %
Sensor: Nr:Datum:Temp:Feuchte:
G-T/H 401 07-09-2018 00:00:00 18.6775 C 67.7917 %
402 08-09-2018 00:00:00 17.10833 C 59.8333 %
403 09-09-2018 00:00:00 17.1975 C 64.7667 %
404 10-09-2018 00:00:00 18.47583 C 60.5250 %
405 11-09-2018 00:00:00 19.45417 C 58.4917 %
406 12-09-2018 00:00:00 18.84083 C 60.8833 %
407 13-09-2018 00:00:00 18.58083 C 66.2167 %
408 14-09-2018 00:00:00 18.04833 C 65.0000 %
409 15-09-2018 00:00:00 17.66667 C 59.8833 %
410 16-09-2018 00:00:00 16.83 C 61.8000 %
411 17-09-2018 00:00:00 17.8475 C 57.0583 %
412 18-09-2018 00:00:00 19.79417 C 56.2333 %
413 19-09-2018 00:00:00 21.03083 C 58.0583 %
414 20-09-2018 00:00:00 20.82 C 55.5500 %
415 21-09-2018 00:00:00 19.29417 C 59.4833 %
416 22-09-2018 00:00:00 17.24917 C 60.5250 %
417 23-09-2018 00:00:00 16.50167 C 65.7500 %
418 24-09-2018 00:00:00 15.14583 C 63.3167 %
419 25-09-2018 00:00:00 13.7275 C 62.7333 %
420 26-09-2018 00:00:00 13.02583 C 63.2917 %
421 27-09-2018 00:00:00 13.0625 C 65.7333 %
422 28-09-2018 00:00:00 13.53583 C 69.5083 %
423 29-09-2018 00:00:00 12.62 C 64.5750 %
424 30-09-2018 00:00:00 11.83417 C 63.4000 %
425 01-10-2018 00:00:00 12.43167 C 68.0167 %
Sensor: Nr:Datum:Temp:Feuchte:
G-T/H 426 02-10-2018 00:00:00 12.47917 C 67.0333 %
427 03-10-2018 00:00:00 13.125 C 70.8750 %
428 04-10-2018 00:00:00 12.85083 C 66.8417 %
429 05-10-2018 00:00:00 13.175 C 68.1250 %
430 06-10-2018 00:00:00 12.79833 C 73.9167 %
431 07-10-2018 00:00:00 14.22167 C 74.0833 %
432 08-10-2018 00:00:00 13.52083 C 69.3917 %
433 09-10-2018 00:00:00 13.39083 C 72.8583 %
434 10-10-2018 00:00:00 13.75333 C 75.3000 %
435 11-10-2018 00:00:00 13.985 C 75.0167 %
436 12-10-2018 00:00:00 14.54333 C 75.8417 %
437 13-10-2018 00:00:00 15.69 C 72.6083 %
438 14-10-2018 00:00:00 15.11667 C 72.1917 %
439 15-10-2018 00:00:00 14.6725 C 73.1583 %
440 16-10-2018 00:00:00 14.08333 C 72.8917 %
441 17-10-2018 00:00:00 13.86667 C 73.4083 %
442 18-10-2018 00:00:00 14.26083 C 74.7500 %
443 19-10-2018 00:00:00 14.28333 C 73.2417 %
444 20-10-2018 00:00:00 14.01833 C 72.8250 %
445 21-10-2018 00:00:00 12.52583 C 67.5917 %
446 22-10-2018 00:00:00 11.7575 C 67.8750 %
447 23-10-2018 00:00:00 11.71417 C 69.2333 %
448 24-10-2018 00:00:00 13.1175 C 73.3417 %
449 25-10-2018 00:00:00 13.88083 C 73.4083 %
450 26-10-2018 00:00:00 13.5375 C 68.0250 %
Sensor: Nr:Datum:Temp:Feuchte:
G-T/H 451 27-10-2018 00:00:00 12.19667 C 65.8417 %
452 28-10-2018 00:00:00 10.9176 C 62.4880 %
453 29-10-2018 00:00:00 10.95583 C 65.6250 %
454 30-10-2018 00:00:00 10.86333 C 67.5167 %
455 31-10-2018 00:00:00 10.8775 C 68.4750 %
456 01-11-2018 00:00:00 10.72083 C 69.2750 %
457 02-11-2018 00:00:00 11.285 C 72.4667 %
458 03-11-2018 00:00:00 10.44 C 67.0750 %
459 04-11-2018 00:00:00 10.265 C 68.6167 %
460 05-11-2018 00:00:00 11.60167 C 72.5750 %
461 06-11-2018 00:00:00 11.5475 C 72.0167 %
462 07-11-2018 00:00:00 11.24083 C 72.4083 %
463 08-11-2018 00:00:00 11.87833 C 74.0333 %
464 09-11-2018 00:00:00 11.62333 C 73.2750 %
465 10-11-2018 00:00:00 12.22833 C 74.7000 %
466 11-11-2018 00:00:00 12.73917 C 75.7833 %
467 12-11-2018 00:00:00 13.255 C 75.6083 %
468 13-11-2018 00:00:00 13.2975 C 75.3417 %
469 14-11-2018 00:00:00 11.54667 C 70.8583 %
470 15-11-2018 00:00:00 11.19417 C 71.8333 %
471 16-11-2018 00:00:00 10.76833 C 68.8833 %
472 17-11-2018 00:00:00 9.25167 C 68.0000 %
473 18-11-2018 00:00:00 8.3775 C 68.4167 %
474 19-11-2018 00:00:00 8.15 C 69.1333 %
475 20-11-2018 00:00:00 8.56667 C 68.8833 %
Sensor: Nr:Datum:Temp:Feuchte:
G-T/H 476 21-11-2018 00:00:00 8.45333 C 69.6833 %
477 22-11-2018 00:00:00 8.65333 C 70.9083 %
478 23-11-2018 00:00:00 7.69667 C 69.4917 %
479 24-11-2018 00:00:00 8.0325 C 72.4750 %
480 25-11-2018 00:00:00 9.05667 C 73.9333 %
481 26-11-2018 00:00:00 9.6625 C 74.3250 %
482 27-11-2018 00:00:00 9.61333 C 72.8000 %
483 28-11-2018 00:00:00 8.91917 C 71.9583 %
484 29-11-2018 00:00:00 9.26083 C 73.8000 %
485 30-11-2018 00:00:00 9.63 C 74.7833 %
486 01-12-2018 00:00:00 9.92417 C 74.6250 %
487 02-12-2018 00:00:00 10.7275 C 75.6167 %
488 03-12-2018 00:00:00 11.87333 C 76.5417 %
489 04-12-2018 00:00:00 11.3275 C 72.0250 %
490 05-12-2018 00:00:00 9.61933 C 69.0504 %
491 06-12-2018 00:00:00 10.40583 C 72.9583 %
492 07-12-2018 00:00:00 11.82917 C 74.0583 %
493 08-12-2018 00:00:00 11.04667 C 70.6667 %
494 09-12-2018 00:00:00 10.81167 C 72.8000 %
495 10-12-2018 00:00:00 10.01083 C 71.3083 %
496 11-12-2018 00:00:00 9.19083 C 71.8583 %
497 12-12-2018 00:00:00 8.70667 C 72.1583 %
498 13-12-2018 00:00:00 8.07083 C 70.1167 %
499 14-12-2018 00:00:00 7.78 C 68.6583 %
500 15-12-2018 00:00:00 7.575 C 68.1083 %
Sensor: Nr:Datum:Temp:Feuchte:
G-T/H 501 16-12-2018 00:00:00 7.33667 C 67.4333 %
502 17-12-2018 00:00:00 7.74583 C 71.2333 %
503 18-12-2018 00:00:00 8.3475 C 72.4667 %
504 19-12-2018 00:00:00 8.60083 C 72.9417 %
505 20-12-2018 00:00:00 9.3175 C 74.0000 %
506 21-12-2018 00:00:00 10.0375 C 74.8333 %
507 22-12-2018 00:00:00 10.99417 C 74.3000 %
508 23-12-2018 00:00:00 10.525 C 74.6917 %
509 24-12-2018 00:00:00 10.26583 C 72.2917 %
510 25-12-2018 00:00:00 8.6825 C 71.1167 %
511 26-12-2018 00:00:00 7.58083 C 70.1333 %
512 27-12-2018 00:00:00 6.98167 C 70.2333 %
513 28-12-2018 00:00:00 6.8575 C 71.5833 %
514 29-12-2018 00:00:00 7.085 C 72.4583 %
515 30-12-2018 00:00:00 8.24 C 74.4417 %
516 31-12-2018 00:00:00 9.18833 C 75.6083 %
517 01-01-2019 00:00:00 9.65583 C 75.8167 %
518 02-01-2019 00:00:00 8.91333 C 73.4000 %
519 03-01-2019 00:00:00 7.65417 C 72.7000 %
520 04-01-2019 00:00:00 7.72667 C 73.7750 %
521 05-01-2019 00:00:00 8.26833 C 74.6083 %
522 06-01-2019 00:00:00 8.8 C 75.9250 %
523 07-01-2019 00:00:00 8.94 C 75.0167 %
524 08-01-2019 00:00:00 9.01833 C 74.5417 %
525 09-01-2019 00:00:00 8.46417 C 73.0417 %
Sensor: Nr:Datum:Temp:Feuchte:
G-T/H 526 10-01-2019 00:00:00 7.90083 C 71.3750 %
527 11-01-2019 00:00:00 7.57167 C 72.1167 %
528 12-01-2019 00:00:00 8.24417 C 74.2500 %
529 13-01-2019 00:00:00 8.91667 C 75.6333 %
530 14-01-2019 00:00:00 9.11083 C 74.7417 %
531 15-01-2019 00:00:00 8.33333 C 74.3833 %
532 16-01-2019 00:00:00 8.5125 C 74.7083 %
533 17-01-2019 00:00:00 8.4975 C 74.5500 %
534 18-01-2019 00:00:00 7.79333 C 72.6583 %
535 19-01-2019 00:00:00 6.99833 C 69.2000 %
536 20-01-2019 00:00:00 6.61083 C 64.8583 %
537 21-01-2019 00:00:00 6.18667 C 61.1750 %
538 22-01-2019 00:00:00 6.04833 C 60.2083 %
539 23-01-2019 00:00:00 6.2575 C 63.4917 %
540 24-01-2019 00:00:00 6.30833 C 65.6583 %
541 25-01-2019 00:00:00 6.2425 C 67.2833 %
542 26-01-2019 00:00:00 6.51833 C 71.7083 %
543 27-01-2019 00:00:00 7.75333 C 73.9667 %
544 28-01-2019 00:00:00 7.77417 C 74.2417 %
545 29-01-2019 00:00:00 7.46167 C 73.9917 %
546 30-01-2019 00:00:00 6.65667 C 69.5667 %
547 31-01-2019 00:00:00 6.54333 C 72.1667 %
548 01-02-2019 00:00:00 6.475 C 73.4167 %
549 02-02-2019 00:00:00 6.70083 C 74.6612 %
550 03-02-2019 00:00:00 6.98667 C 74.3417 %
Sensor: Nr:Datum:Temp:Feuchte:
G-T/H 551 04-02-2019 00:00:00 6.68333 C 73.8083 %
552 05-02-2019 00:00:00 7.12 C 74.5083 %
553 06-02-2019 00:00:00 6.9875 C 73.4333 %
554 07-02-2019 00:00:00 7.0025 C 74.8750 %
555 08-02-2019 00:00:00 7.93833 C 76.1083 %
556 09-02-2019 00:00:00 8.85917 C 76.1583 %
557 10-02-2019 00:00:00 9.2225 C 75.9667 %
558 11-02-2019 00:00:00 8.8125 C 75.1083 %
559 12-02-2019 00:00:00 8.09167 C 74.2167 %
560 13-02-2019 00:00:00 7.47583 C 73.5000 %
561 14-02-2019 00:00:00 6.95583 C 72.5083 %
562 15-02-2019 00:00:00 6.6825 C 71.6250 %
563 16-02-2019 00:00:00 6.53917 C 73.3083 %
564 17-02-2019 00:00:00 6.63667 C 74.1417 %
565 18-02-2019 00:00:00 6.65583 C 74.3000 %
566 19-02-2019 00:00:00 7.19417 C 75.8083 %
567 20-02-2019 00:00:00 7.495 C 75.5500 %
568 21-02-2019 00:00:00 7.76167 C 75.7333 %
569 22-02-2019 00:00:00 9.21417 C 77.2250 %
570 23-02-2019 00:00:00 9.20583 C 74.8917 %
571 24-02-2019 00:00:00 8.01917 C 72.1333 %
572 25-02-2019 00:00:00 7.5975 C 71.6250 %
573 26-02-2019 00:00:00 7.74083 C 71.5500 %
574 27-02-2019 00:00:00 6.63667 C 68.6917 %
575 28-02-2019 00:00:00 8.11917 C 73.1500 %
Sensor: Nr:Datum:Temp:Feuchte:
G-T/H 576 01-03-2019 00:00:00 9.37083 C 74.7583 %
577 02-03-2019 00:00:00 9.69333 C 72.8750 %
578 03-03-2019 00:00:00 10.36917 C 73.5083 %
579 04-03-2019 00:00:00 10.60917 C 73.1083 %
580 05-03-2019 00:00:00 9.71 C 71.6083 %
581 06-03-2019 00:00:00 9.71 C 73.4333 %
582 07-03-2019 00:00:00 10.48417 C 73.6500 %
583 08-03-2019 00:00:00 10.0575 C 72.7250 %
584 09-03-2019 00:00:00 10.17167 C 73.4333 %
585 10-03-2019 00:00:00 10.60917 C 71.4667 %
586 11-03-2019 00:00:00 9.44833 C 67.3667 %
587 12-03-2019 00:00:00 8.92417 C 70.4667 %
588 13-03-2019 00:00:00 9.345 C 71.3250 %
589 14-03-2019 00:00:00 9.13333 C 72.3750 %
590 15-03-2019 00:00:00 10.055 C 74.0583 %
591 16-03-2019 00:00:00 10.57417 C 72.1333 %
592 17-03-2019 00:00:00 9.70583 C 61.2083 %
593 18-03-2019 00:00:00 6.8675 C 62.4667 %
594 19-03-2019 00:00:00 6.02333 C 59.7583 %
595 20-03-2019 00:00:00 7.52333 C 64.5167 %
596 21-03-2019 00:00:00 9.29167 C 60.4917 %
597 22-03-2019 00:00:00 10.14833 C 61.3250 %
598 23-03-2019 00:00:00 10.15917 C 64.7250 %
599 24-03-2019 00:00:00 9.54833 C 67.2167 %
600 25-03-2019 00:00:00 9.15583 C 67.9000 %
Sensor: Nr:Datum:Temp:Feuchte:
G-T/H 601 26-03-2019 00:00:00 9.0525 C 69.7250 %
602 27-03-2019 00:00:00 9.47917 C 69.9333 %
603 28-03-2019 00:00:00 9.49583 C 69.9417 %
604 29-03-2019 00:00:00 10.2825 C 66.2583 %
605 30-03-2019 00:00:00 9.79667 C 60.6083 %
606 31-03-2019 00:00:00 11.2313 C 64.9130 %
607 01-04-2019 00:00:00 11.50333 C 60.3833 %
608 02-04-2019 00:00:00 11.2875 C 63.6333 %
609 03-04-2019 00:00:00 11.49833 C 67.0000 %
610 04-04-2019 00:00:00 10.56333 C 67.8833 %
611 05-04-2019 00:00:00 9.87333 C 68.5417 %
612 06-04-2019 00:00:00 10.76333 C 69.0417 %
613 07-04-2019 00:00:00 11.4925 C 68.0667 %
614 08-04-2019 00:00:00 12.30917 C 70.6833 %
615 09-04-2019 00:00:00 12.2875 C 74.7333 %
616 10-04-2019 00:00:00 12.35917 C 56.9917 %
617 11-04-2019 00:00:00 10.73083 C 48.4917 %
618 12-04-2019 00:00:00 9.57417 C 46.6333 %
619 13-04-2019 00:00:00 9.48583 C 55.2583 %
620 14-04-2019 00:00:00 9.175 C 58.5167 %
621 15-04-2019 00:00:00 10.07667 C 62.0833 %
622 16-04-2019 00:00:00 11.07083 C 62.2083 %
623 17-04-2019 00:00:00 12.33417 C 65.8333 %
624 18-04-2019 00:00:00 13.09417 C 62.0833 %
625 19-04-2019 00:00:00 14.9125 C 51.5500 %
Sensor: Nr:Datum:Temp:Feuchte:
G-T/H 626 20-04-2019 00:00:00 15.6775 C 48.0417 %
627 21-04-2019 00:00:00 16.29 C 47.3167 %
628 22-04-2019 00:00:00 15.22333 C 52.2417 %
629 23-04-2019 00:00:00 15.61417 C 53.2333 %
630 24-04-2019 00:00:00 15.37833 C 59.4167 %
631 25-04-2019 00:00:00 14.5575 C 61.5833 %
632 26-04-2019 00:00:00 14.28667 C 64.1250 %
633 27-04-2019 00:00:00 13.445 C 64.1833 %
634 28-04-2019 00:00:00 12.45 C 64.1833 %
635 29-04-2019 00:00:00 11.95083 C 63.4083 %
636 30-04-2019 00:00:00 13.89833 C 57.8083 %
637 01-05-2019 00:00:00 14.135 C 60.2833 %
638 02-05-2019 00:00:00 13.82333 C 62.1750 %
639 03-05-2019 00:00:00 13.86417 C 59.4750 %
640 04-05-2019 00:00:00 12.72083 C 59.0083 %
641 05-05-2019 00:00:00 11.31667 C 59.7917 %
642 06-05-2019 00:00:00 11.38833 C 61.2833 %
643 07-05-2019 00:00:00 11.88083 C 62.6250 %
644 08-05-2019 00:00:00 11.97 C 62.9333 %
645 09-05-2019 00:00:00 12.35167 C 66.7333 %
646 10-05-2019 00:00:00 12.92101 C 67.6218 %
647 11-05-2019 00:00:00 13.15833 C 68.0833 %
648 12-05-2019 00:00:00 12.12833 C 64.0833 %
649 13-05-2019 00:00:00 12.045 C 60.0000 %
650 14-05-2019 00:00:00 12.31083 C 59.7417 %
Sensor: Nr:Datum:Temp:Feuchte:
G-T/H 651 15-05-2019 00:00:00 12.7725 C 52.9833 %
652 16-05-2019 00:00:00 13.015 C 56.6333 %
653 17-05-2019 00:00:00 13.21917 C 63.1000 %
654 18-05-2019 00:00:00 14.04667 C 66.4250 %
655 19-05-2019 00:00:00 14.825 C 68.0750 %
656 20-05-2019 00:00:00 14.84583 C 68.8000 %
657 21-05-2019 00:00:00 14.15167 C 70.0167 %
658 22-05-2019 00:00:00 13.71167 C 69.7583 %
659 23-05-2019 00:00:00 15.29917 C 61.3750 %
660 24-05-2019 00:00:00 17.54 C 55.6333 %
661 25-05-2019 00:00:00 17.29083 C 56.6250 %
662 26-05-2019 00:00:00 16.44583 C 60.8167 %
663 27-05-2019 00:00:00 16.3925 C 64.3917 %
664 28-05-2019 00:00:00 15.71583 C 66.5333 %
665 29-05-2019 00:00:00 16.0475 C 54.4250 %
666 30-05-2019 00:00:00 15.75417 C 61.4167 %
667 31-05-2019 00:00:00 17.74167 C 65.2667 %
668 01-06-2019 00:00:00 18.025 C 65.0750 %
669 02-06-2019 00:00:00 18.60667 C 66.0917 %
670 03-06-2019 00:00:00 19.92333 C 65.8667 %
671 04-06-2019 00:00:00 19.69667 C 66.1500 %
672 05-06-2019 00:00:00 20.025 C 66.6917 %
673 06-06-2019 00:00:00 19.2775 C 64.1917 %
674 07-06-2019 00:00:00 17.86583 C 60.1250 %
675 08-06-2019 00:00:00 17.565 C 60.2333 %
Sensor: Nr:Datum:Temp:Feuchte:
G-T/H 676 09-06-2019 00:00:00 16.99667 C 61.5667 %
677 10-06-2019 00:00:00 17.96333 C 64.8583 %
678 11-06-2019 00:00:00 18.18333 C 66.3917 %
679 12-06-2019 00:00:00 17.70333 C 67.3917 %
680 13-06-2019 00:00:00 17.89167 C 58.1667 %
681 14-06-2019 00:00:00 19.59083 C 60.6083 %
682 15-06-2019 00:00:00 19.6625 C 64.9917 %
683 16-06-2019 00:00:00 19.56917 C 62.4417 %
684 17-06-2019 00:00:00 19.01167 C 62.8417 %
685 18-06-2019 00:00:00 21.23667 C 58.9250 %
686 19-06-2019 00:00:00 21.53167 C 61.1000 %
687 20-06-2019 00:00:00 20.7375 C 63.5667 %
688 21-06-2019 00:00:00 20.53083 C 52.5000 %
689 22-06-2019 00:00:00 20.16917 C 54.8083 %
690 23-06-2019 00:00:00 21.31917 C 57.1667 %
691 24-06-2019 00:00:00 23.94167 C 55.3000 %
692 25-06-2019 00:00:00 23.93083 C 58.5083 %
693 26-06-2019 00:00:00 24.37417 C 62.9417 %
694 27-06-2019 00:00:00 23.60667 C 60.8333 %
695 28-06-2019 00:00:00 22.21417 C 58.6667 %
696 29-06-2019 00:00:00 24.105 C 45.4667 %
697 30-06-2019 00:00:00 23.46833 C 52.6667 %
698 01-07-2019 00:00:00 23.14417 C 56.9333 %
699 02-07-2019 00:00:00 21.5975 C 49.7667 %
700 03-07-2019 00:00:00 20.46667 C 46.5000 %
Sensor: Nr:Datum:Temp:Feuchte:
G-T/H 701 04-07-2019 00:00:00 20.24 C 44.2750 %
702 05-07-2019 00:00:00 20.99583 C 47.4667 %
703 06-07-2019 00:00:00 21.055 C 53.0250 %
704 07-07-2019 00:00:00 20.39667 C 54.9083 %
705 08-07-2019 00:00:00 18.37167 C 51.1250 %
706 09-07-2019 00:00:00 18.10583 C 49.1417 %
707 10-07-2019 00:00:00 18.91917 C 42.0333 %
708 11-07-2019 00:00:00 18.91167 C 59.7083 %
709 12-07-2019 00:00:00 18.3025 C 73.7917 %
710 13-07-2019 00:00:00 18.47333 C 67.7417 %
711 14-07-2019 00:00:00 18.46917 C 65.0917 %
712 15-07-2019 00:00:00 18.2725 C 59.6250 %
713 16-07-2019 00:00:00 17.95917 C 58.3667 %
714 17-07-2019 00:00:00 18.23667 C 61.2917 %
715 18-07-2019 00:00:00 19.79417 C 58.3083 %
716 19-07-2019 00:00:00 19.79417 C 61.5917 %
717 20-07-2019 00:00:00 19.78583 C 63.8500 %
718 21-07-2019 00:00:00 20.41333 C 63.8583 %
719 22-07-2019 00:00:00 22.33167 C 54.5167 %
720 23-07-2019 00:00:00 22.5225 C 56.8667 %
721 24-07-2019 00:00:00 23.21833 C 58.3417 %
722 25-07-2019 00:00:00 24.345 C 57.0083 %
723 26-07-2019 00:00:00 24.17667 C 57.8500 %
724 27-07-2019 00:00:00 23.54 C 61.3083 %
725 28-07-2019 00:00:00 22.08333 C 64.8167 %
Sensor: Nr:Datum:Temp:Feuchte:
G-T/H 726 29-07-2019 00:00:00 21.58833 C 59.7917 %
727 30-07-2019 00:00:00 21.785 C 58.7750 %
728 31-07-2019 00:00:00 22.4025 C 50.4333 %
729 01-08-2019 00:00:00 21.77083 C 49.7000 %
730 02-08-2019 00:00:00 21.34583 C 55.7750 %
731 03-08-2019 00:00:00 20.90667 C 59.1167 %
732 04-08-2019 00:00:00 20.4525 C 59.4750 %
733 05-08-2019 00:00:00 22.07 C 57.0167 %
734 06-08-2019 00:00:00 21.48083 C 59.7417 %
735 07-08-2019 00:00:00 21.08 C 63.1500 %
736 08-08-2019 00:00:00 20.60333 C 62.6167 %
737 09-08-2019 00:00:00 20.50167 C 64.6000 %
738 10-08-2019 00:00:00 20.38917 C 65.0917 %
739 11-08-2019 00:00:00 19.8725 C 64.3750 %
740 12-08-2019 00:00:00 19.0475 C 65.6000 %
741 13-08-2019 00:00:00 18.645 C 58.8417 %
742 14-08-2019 00:00:00 18.54583 C 57.0833 %
743 15-08-2019 00:00:00 18.91583 C 62.6250 %
744 16-08-2019 00:00:00 18.59917 C 65.5583 %
745 17-08-2019 00:00:00 18.78167 C 67.1583 %
746 18-08-2019 00:00:00 19.07417 C 68.7167 %
747 19-08-2019 00:00:00 19.70167 C 61.8833 %
748 20-08-2019 00:00:00 18.7775 C 58.6500 %
749 21-08-2019 00:00:00 18.37 C 62.6500 %
750 22-08-2019 00:00:00 18.7725 C 58.7167 %
Sensor: Nr:Datum:Temp:Feuchte:
G-T/H 751 23-08-2019 00:00:00 19.34333 C 56.0250 %
752 24-08-2019 00:00:00 19.1825 C 58.5917 %
753 25-08-2019 00:00:00 19.53 C 63.3500 %
754 26-08-2019 00:00:00 21.84417 C 64.5833 %
755 27-08-2019 00:00:00 21.31417 C 66.1667 %
756 28-08-2019 00:00:00 21.07 C 66.6583 %
757 29-08-2019 00:00:00 21.03417 C 66.8417 %
758 30-08-2019 00:00:00 20.6775 C 66.8917 %
759 31-08-2019 00:00:00 20.2775 C 66.5917 %
760 01-09-2019 00:00:00 20.59167 C 65.4167 %
761 02-09-2019 00:00:00 18.59583 C 51.3417 %
762 03-09-2019 00:00:00 16.5475 C 53.5583 %
763 04-09-2019 00:00:00 18.68667 C 56.9667 %
764 05-09-2019 00:00:00 18.34667 C 60.0000 %
765 06-09-2019 00:00:00 17.44333 C 56.1750 %
766 07-09-2019 00:00:00 17.36583 C 60.4417 %
767 08-09-2019 00:00:00 16.54309 C 65.9350 %
768 09-09-2019 00:00:00 16.06067 C 66.7333 %
769 10-09-2019 00:00:00 15.23333 C 63.6597 %
770 11-09-2019 00:00:00 15.74097 C 61.0833 %
771 12-09-2019 00:00:00 17.93194 C 67.6319 %
772 13-09-2019 00:00:00 18.68472 C 70.9653 %
773 14-09-2019 00:00:00 18.01181 C 65.5903 %
774 15-09-2019 00:00:00 17.60347 C 61.9722 %
775 16-09-2019 00:00:00 17.78264 C 60.7361 %
Sensor: Nr:Datum:Temp:Feuchte:
G-T/H 776 17-09-2019 00:00:00 17.67431 C 62.7083 %
777 18-09-2019 00:00:00 15.39444 C 57.2778 %
778 19-09-2019 00:00:00 14.12361 C 57.3125 %
779 20-09-2019 00:00:00 13.22639 C 59.3056 %
780 21-09-2019 00:00:00 15.10833 C 52.5278 %
781 22-09-2019 00:00:00 15.13194 C 59.2083 %
782 23-09-2019 00:00:00 16.27153 C 64.4028 %
783 24-09-2019 00:00:00 16.11528 C 66.2778 %
784 25-09-2019 00:00:00 16.20556 C 67.8681 %
785 26-09-2019 00:00:00 16.33542 C 69.4097 %
786 27-09-2019 00:00:00 16.76458 C 69.3611 %
787 28-09-2019 00:00:00 16.47083 C 68.9792 %
788 29-09-2019 00:00:00 16.41458 C 69.6528 %
789 30-09-2019 00:00:00 16.64236 C 66.7917 %
790 01-10-2019 00:00:00 16.54167 C 68.3542 %
791 02-10-2019 00:00:00 16.15694 C 67.3056 %
792 03-10-2019 00:00:00 14.67222 C 66.7361 %
793 04-10-2019 00:00:00 14.15556 C 70.1319 %
794 05-10-2019 00:00:00 14.31875 C 71.1667 %
795 06-10-2019 00:00:00 13.69306 C 70.7847 %
796 07-10-2019 00:00:00 13.58056 C 72.7153 %
797 08-10-2019 00:00:00 14.14097 C 74.1597 %
798 09-10-2019 00:00:00 14.23472 C 74.0486 %
799 10-10-2019 00:00:00 14.00139 C 74.0278 %
800 11-10-2019 00:00:00 13.98819 C 74.3333 %
Sensor: Nr:Datum:Temp:Feuchte:
G-T/H 801 12-10-2019 00:00:00 14.71181 C 71.7639 %
802 13-10-2019 00:00:00 15.13472 C 74.9097 %
803 14-10-2019 00:00:00 16.34722 C 74.3958 %
804 15-10-2019 00:00:00 15.98125 C 73.6597 %
805 16-10-2019 00:00:00 15.42708 C 73.2986 %
806 17-10-2019 00:00:00 15.28056 C 74.7292 %
807 18-10-2019 00:00:00 15.18681 C 74.6042 %
808 19-10-2019 00:00:00 14.72222 C 74.1944 %
809 20-10-2019 00:00:00 14.40278 C 81.1597 %
810 21-10-2019 00:00:00 14.60625 C 80.9028 %
811 22-10-2019 00:00:00 14.62153 C 77.5000 %
812 23-10-2019 00:00:00 14.00764 C 76.3542 %
813 24-10-2019 00:00:00 14.52986 C 78.0139 %
814 25-10-2019 00:00:00 15.10694 C 74.8681 %
815 26-10-2019 00:00:00 14.99028 C 74.2153 %
816 27-10-2019 00:00:00 14.43933 C 74.9333 %
817 28-10-2019 00:00:00 12.81389 C 71.1806 %
818 29-10-2019 00:00:00 12.35556 C 71.6389 %
819 30-10-2019 00:00:00 10.98611 C 65.8194 %
820 31-10-2019 00:00:00 9.49097 C 64.1736 %
821 01-11-2019 00:00:00 9.67014 C 69.2569 %
822 02-11-2019 00:00:00 12.01181 C 74.2222 %
823 03-11-2019 00:00:00 12.91806 C 75.4861 %
824 04-11-2019 00:00:00 12.97569 C 75.6250 %
825 05-11-2019 00:00:00 12.58194 C 75.9444 %
Sensor: Nr:Datum:Temp:Feuchte:
G-T/H 826 06-11-2019 00:00:00 12.33194 C 75.6528 %
827 07-11-2019 00:00:00 12.18403 C 75.3403 %
828 08-11-2019 00:00:00 11.13611 C 70.1181 %
829 09-11-2019 00:00:00 11.02014 C 69.0972 %
830 10-11-2019 00:00:00 9.95556 C 68.3056 %
831 11-11-2019 00:00:00 9.96458 C 71.2708 %
832 12-11-2019 00:00:00 10.11458 C 72.0972 %
833 13-11-2019 00:00:00 10.0125 C 72.4097 %
834 14-11-2019 00:00:00 9.73403 C 68.3958 %
835 15-11-2019 00:00:00 9.68819 C 69.4028 %
836 16-11-2019 00:00:00 9.6125 C 68.7083 %
837 17-11-2019 00:00:00 9.03819 C 69.9306 %
838 18-11-2019 00:00:00 9.47361 C 72.2500 %
839 19-11-2019 00:00:00 9.40903 C 72.0833 %
840 20-11-2019 00:00:00 8.93333 C 71.1181 %
841 21-11-2019 00:00:00 8.40559 C 70.8182 %
842 22-11-2019 00:00:00 8.70556 C 72.6736 %
843 23-11-2019 00:00:00 9.32569 C 73.0972 %
844 24-11-2019 00:00:00 9.08333 C 72.0764 %
845 25-11-2019 00:00:00 9.04375 C 73.5069 %
846 26-11-2019 00:00:00 9.85139 C 74.9375 %
847 27-11-2019 00:00:00 10.87847 C 75.9236 %
848 28-11-2019 00:00:00 11.51597 C 75.5069 %
849 29-11-2019 00:00:00 11.25208 C 72.3542 %
850 30-11-2019 00:00:00 9.66736 C 68.9097 %
Sensor: Nr:Datum:Temp:Feuchte:
G-T/H 851 01-12-2019 00:00:00 8.81806 C 70.1806 %
852 02-12-2019 00:00:00 8.35278 C 70.5417 %
853 03-12-2019 00:00:00 8.74514 C 73.3472 %
854 04-12-2019 00:00:00 8.79375 C 71.8403 %
855 05-12-2019 00:00:00 7.92014 C 69.1458 %
856 06-12-2019 00:00:00 7.57292 C 70.7014 %
857 07-12-2019 00:00:00 8.97014 C 74.4514 %
858 08-12-2019 00:00:00 10.25694 C 75.1667 %
859 09-12-2019 00:00:00 10.48403 C 74.1111 %
860 10-12-2019 00:00:00 9.34028 C 71.5903 %
861 11-12-2019 00:00:00 8.75694 C 73.1250 %
862 12-12-2019 00:00:00 8.81042 C 73.2500 %
863 13-12-2019 00:00:00 8.51944 C 72.1458 %
864 14-12-2019 00:00:00 8.92153 C 73.0764 %
865 15-12-2019 00:00:00 9.56736 C 74.6667 %
866 16-12-2019 00:00:00 9.90486 C 75.1389 %
867 17-12-2019 00:00:00 10.43333 C 75.4583 %
868 18-12-2019 00:00:00 10.925 C 75.4861 %
869 19-12-2019 00:00:00 9.76667 C 73.6667 %
870 20-12-2019 00:00:00 9.69375 C 75.0208 %
871 21-12-2019 00:00:00 10.06458 C 74.5833 %
872 22-12-2019 00:00:00 10.1375 C 75.1528 %
873 23-12-2019 00:00:00 10.30417 C 75.3681 %
874 24-12-2019 00:00:00 10.12639 C 74.9375 %
875 25-12-2019 00:00:00 10.24444 C 75.9653 %
Sensor: Nr:Datum:Temp:Feuchte:
G-T/H 876 26-12-2019 00:00:00 9.92708 C 75.2569 %
877 27-12-2019 00:00:00 9.69444 C 75.5833 %
878 28-12-2019 00:00:00 8.37639 C 70.3194 %
879 29-12-2019 00:00:00 7.21528 C 69.6875 %
880 30-12-2019 00:00:00 7.16944 C 69.0486 %
881 31-12-2019 00:00:00 6.93194 C 69.9722 %
882 01-01-2020 00:00:00 7.23125 C 70.8403 %
883 02-01-2020 00:00:00 7.28958 C 70.5417 %
884 03-01-2020 00:00:00 8.41389 C 73.4792 %
885 04-01-2020 00:00:00 9.12431 C 73.5833 %
886 05-01-2020 00:00:00 9.42917 C 73.5694 %
887 06-01-2020 00:00:00 9.33958 C 72.1181 %
888 07-01-2020 00:00:00 8.74583 C 72.1111 %
889 08-01-2020 00:00:00 9.18611 C 74.0347 %
890 09-01-2020 00:00:00 10.3875 C 76.5556 %
891 10-01-2020 00:00:00 11.02153 C 75.1389 %
892 11-01-2020 00:00:00 10.04097 C 73.2014 %
893 12-01-2020 00:00:00 9.14861 C 72.8958 %
894 13-01-2020 00:00:00 9.30833 C 74.5139 %
895 14-01-2020 00:00:00 9.78958 C 75.6597 %
896 15-01-2020 00:00:00 10.59028 C 75.5972 %
897 16-01-2020 00:00:00 10.82222 C 75.8264 %
898 17-01-2020 00:00:00 9.87847 C 74.9583 %
899 18-01-2020 00:00:00 9.38125 C 74.1597 %
900 19-01-2020 00:00:00 8.86667 C 74.2569 %
Sensor: Nr:Datum:Temp:Feuchte:
G-T/H 901 20-01-2020 00:00:00 8.75 C 73.1111 %
902 21-01-2020 00:00:00 7.77014 C 69.7847 %
903 22-01-2020 00:00:00 7.17083 C 69.5903 %
904 23-01-2020 00:00:00 7.63472 C 70.8611 %
905 24-01-2020 00:00:00 7.71319 C 70.9097 %
906 25-01-2020 00:00:00 7.96806 C 71.5139 %
907 26-01-2020 00:00:00 7.98611 C 72.6597 %
908 27-01-2020 00:00:00 8.21875 C 74.7500 %
909 28-01-2020 00:00:00 8.85833 C 75.1458 %
910 29-01-2020 00:00:00 8.44306 C 74.0000 %
911 30-01-2020 00:00:00 8.61389 C 74.8750 %
912 31-01-2020 00:00:00 10.32431 C 76.3958 %
913 01-02-2020 00:00:00 11.40556 C 76.3681 %
914 02-02-2020 00:00:00 11.15903 C 73.6736 %
915 03-02-2020 00:00:00 11.4875 C 75.0000 %
916 04-02-2020 00:00:00 10.54722 C 71.2847 %
917 05-02-2020 00:00:00 9.47153 C 71.9236 %
918 06-02-2020 00:00:00 8.34306 C 70.5208 %
919 07-02-2020 00:00:00 7.79097 C 69.9167 %
920 08-02-2020 00:00:00 7.33681 C 70.6528 %
921 09-02-2020 00:00:00 8.3 C 73.5694 %
922 10-02-2020 00:00:00 9.82708 C 73.9167 %
923 11-02-2020 00:00:00 9.18194 C 72.2431 %
924 12-02-2020 00:00:00 8.72083 C 72.8750 %
925 13-02-2020 00:00:00 8.20208 C 72.5208 %
Sensor: Nr:Datum:Temp:Feuchte:
G-T/H 926 14-02-2020 00:00:00 8.84653 C 74.7500 %
927 15-02-2020 00:00:00 8.93958 C 73.5903 %
928 16-02-2020 00:00:00 11.3125 C 68.1111 %
929 17-02-2020 00:00:00 11.77708 C 69.2778 %
930 18-02-2020 00:00:00 10.43056 C 67.4028 %
931 19-02-2020 00:00:00 9.94514 C 69.4583 %
932 20-02-2020 00:00:00 9.73472 C 71.6875 %
933 21-02-2020 00:00:00 9.56875 C 71.4931 %
934 22-02-2020 00:00:00 9.25625 C 72.0625 %
935 23-02-2020 00:00:00 10.38403 C 73.7708 %
936 24-02-2020 00:00:00 10.40903 C 71.9792 %
937 25-02-2020 00:00:00 10.88819 C 73.0278 %
938 26-02-2020 00:00:00 10.02917 C 68.9306 %
939 27-02-2020 00:00:00 9.17986 C 71.0208 %
940 28-02-2020 00:00:00 8.31042 C 73.7708 %
941 29-02-2020 00:00:00 9.28125 C 75.1597 %
942 01-03-2020 00:00:00 9.80486 C 74.3403 %
943 02-03-2020 00:00:00 9.67847 C 73.5833 %
944 03-03-2020 00:00:00 9.53681 C 73.3194 %
945 04-03-2020 00:00:00 8.95833 C 73.5139 %
946 05-03-2020 00:00:00 9.15833 C 73.9861 %
947 06-03-2020 00:00:00 9.48958 C 74.9514 %
948 07-03-2020 00:00:00 9.38611 C 74.0556 %
949 08-03-2020 00:00:00 9.99583 C 74.7292 %
950 09-03-2020 00:00:00 10.54861 C 73.8819 %
Sensor: Nr:Datum:Temp:Feuchte:
G-T/H 951 10-03-2020 00:00:00 10.28056 C 73.3819 %
952 11-03-2020 00:00:00 11.72083 C 75.8889 %
953 12-03-2020 00:00:00 12.29653 C 71.3333 %
954 13-03-2020 00:00:00 11.08333 C 68.2014 %
955 14-03-2020 00:00:00 10.32361 C 70.1250 %
956 15-03-2020 00:00:00 10.87153 C 65.1667 %
957 16-03-2020 00:00:00 10.71667 C 66.3819 %
958 17-03-2020 00:00:00 11.47153 C 70.7292 %
959 18-03-2020 00:00:00 11.42569 C 70.3472 %
960 19-03-2020 00:00:00 12.36736 C 67.4583 %
961 20-03-2020 00:00:00 12.53217 C 67.5944 %
962 21-03-2020 00:00:00 11.55903 C 63.9097 %
963 22-03-2020 00:00:00 9.66111 C 61.2292 %
964 23-03-2020 00:00:00 8.67431 C 62.8819 %
965 24-03-2020 00:00:00 8.04028 C 63.8611 %
966 25-03-2020 00:00:00 7.80833 C 63.4722 %
967 26-03-2020 00:00:00 8.04028 C 64.0208 %
968 27-03-2020 00:00:00 9.19722 C 61.4583 %
969 28-03-2020 00:00:00 10.48264 C 59.6944 %
970 29-03-2020 00:00:00 10.14855 C 60.5362 %
971 30-03-2020 00:00:00 8.62708 C 59.5417 %
972 31-03-2020 00:00:00 8.58472 C 62.8194 %
973 01-04-2020 00:00:00 8.20764 C 62.6181 %
974 02-04-2020 00:00:00 8.18194 C 64.4097 %
975 03-04-2020 00:00:00 9.17708 C 61.3125 %
Sensor: Nr:Datum:Temp:Feuchte:
G-T/H 976 04-04-2020 00:00:00 7.05486 C 55.4306 %
977 05-04-2020 00:00:00 9.21944 C 61.8056 %
978 06-04-2020 00:00:00 10.2125 C 63.7569 %
979 07-04-2020 00:00:00 13.11319 C 59.7083 %
980 08-04-2020 00:00:00 13.17153 C 61.2847 %
981 09-04-2020 00:00:00 13.65556 C 60.0069 %
982 10-04-2020 00:00:00 13.73681 C 60.7847 %
983 11-04-2020 00:00:00 13.3125 C 61.3611 %
984 12-04-2020 00:00:00 13.45 C 63.2500 %
985 13-04-2020 00:00:00 13.15556 C 59.7986 %
986 14-04-2020 00:00:00 11.44375 C 58.7847 %
987 15-04-2020 00:00:00 11.16875 C 56.8333 %
988 16-04-2020 00:00:00 11.42917 C 52.3542 %
989 17-04-2020 00:00:00 14.90625 C 55.3958 %
990 18-04-2020 00:00:00 14.63333 C 62.5347 %
991 19-04-2020 00:00:00 14.45833 C 64.6250 %
992 20-04-2020 00:00:00 13.53681 C 59.6042 %
993 21-04-2020 00:00:00 13.28819 C 58.7986 %
994 22-04-2020 00:00:00 13.43958 C 59.4167 %
995 23-04-2020 00:00:00 13.68125 C 59.6181 %
996 24-04-2020 00:00:00 14.95139 C 52.1875 %
997 25-04-2020 00:00:00 14.65694 C 48.8681 %
998 26-04-2020 00:00:00 11.22569 C 54.7014 %
999 27-04-2020 00:00:00 13.14028 C 57.4375 %
1000 28-04-2020 00:00:00 13.66528 C 62.0139 %
Sensor: Nr:Datum:Temp:Feuchte:
G-T/H 1001 29-04-2020 00:00:00 13.85625 C 64.5486 %
1002 30-04-2020 00:00:00 14.0875 C 65.0556 %
1003 01-05-2020 00:00:00 13.42361 C 65.1111 %
1004 02-05-2020 00:00:00 12.90972 C 65.8542 %
1005 03-05-2020 00:00:00 12.50278 C 65.6389 %
1006 04-05-2020 00:00:00 13.3096 C 66.6560 %

Maximal/Minimal-Werte vom 03.08.2017 - 02.08.2020

Sensor Min Max Avg
Temp
(Aussen-T/F)
-12.4 °C
27-02-2018  07:25:17
43.5 °C
31-07-2020  17:11:17
11.26 °C
Feuchte
(Aussen-T/F)
20 %
03-08-2017  11:21:17
78 %
23-11-2017  06:30:17
32.87 %
Temp
(G-T/H)
2 °C
27-02-2018  07:01:17
29.7 °C
26-07-2018  16:25:17
13.2 °C
Feuchte
(G-T/H)
25 %
29-06-2019  18:04:17
85 %
16-10-2017  15:03:17
67.13 %

Die Daten stammen von einer Davis Vantage Pro 2 Wetter-Station und werden unter Linux mit der Software wview2wettercgi und aufbereitet. Alle Angaben erfolgen ohne Gewähr für ihre Vollständigkeit oder Richtigkeit.
Kontakt: Rainer Krienke krienke@uni-koblenz.de . Meine Webseiten an der Uni Koblenz oder privat.
Version: $Revision: 0.78 $